[{"header": {"dx": 0.06612293990616946, "dy": 0.0552356325346848, "nx": 98, "ny": 59, "la1": 35.046912555036876, "la2": 31.78801023549047, "lo1": -121.43107172385933, "lo2": -114.95102361305473, "refTime": "2026040619", "parameterCategory": 1, "parameterNumber": 2}, "data": [6.34, 6.34, 6.64, 6.92, 6.92, 6.92, 6.92, 6.59, 6.87, 7.15, 7.23, 7.31, 8.72, 8.06, 7.55, 7.54, 7.08, 6.64, 7.01, 6.94, 5.58, 3.47, 1.05, 0.0, 0.0, 0.0, -1.05, -1.99, -2.16, -2.16, -1.99, -1.99, -0.96, -0.96, 0.0, 1.05, 1.99, 1.99, 2.76, 4.11, 4.43, 5.95, 6.63, 7.56, 9.09, 9.04, 10.01, 9.66, 9.04, 8.42, 7.82, 8.06, 7.37, 6.64, 5.81, 5.73, 5.94, 6.45, 6.88, 7.1, 7.1, 6.64, 6.2, 6.2, 6.64, 7.1, 7.54, 8.0, 8.45, 8.9, 8.94, 8.49, 8.49, 8.49, 8.49, 8.49, 8.94, 8.46, 8.9, 8.29, 7.12, 6.57, 5.37, 3.48, 2.21, 2.24, 3.58, 4.47, 5.81, 6.64, 6.45, 5.94, 5.36, 4.34, 3.72, 3.16, 3.48, 1.27, 6.04, 6.34, 6.64, 6.92, 6.92, 6.92, 6.92, 6.59, 6.87, 6.52, 6.44, 7.81, 7.82, 7.89, 8.06, 7.94, 7.08, 7.89, 7.06, 5.6, 6.4, 3.47, 0.0, 0.0, 0.0, 0.0, 0.0, -1.05, -1.84, -1.84, -1.84, -0.96, -0.96, 0.0, 0.0, 0.96, 1.03, 1.98, 2.8, 3.47, 5.06, 5.31, 6.95, 7.59, 8.53, 9.26, 9.0, 8.38, 7.76, 7.81, 7.82, 7.76, 7.85, 6.71, 6.21, 6.45, 6.45, 6.94, 7.37, 7.54, 7.54, 7.1, 6.64, 6.64, 6.71, 7.15, 7.6, 8.05, 8.49, 8.9, 8.9, 8.94, 8.94, 8.49, 8.49, 8.49, 9.35, 8.46, 8.9, 8.29, 7.12, 6.57, 5.37, 3.48, 2.21, 2.24, 3.58, 4.47, 5.81, 6.64, 6.45, 5.94, 5.36, 4.34, 3.72, 3.16, 3.48, 1.27, 5.72, 6.04, 6.04, 6.64, 6.92, 6.92, 6.92, 6.32, 6.62, 6.28, 6.23, 6.15, 8.21, 7.42, 6.94, 7.12, 7.53, 7.53, 6.99, 7.47, 6.16, 6.4, 1.98, 0.0, 0.0, 0.0, 0.0, -1.05, -0.88, -1.03, -0.89, -0.89, 0.0, 0.0, 1.03, 1.49, 0.95, 1.84, 2.82, 3.77, 4.83, 6.24, 7.48, 8.12, 8.42, 8.22, 7.68, 7.15, 6.11, 6.55, 6.6, 7.12, 7.1, 6.71, 6.07, 6.45, 6.94, 7.37, 7.55, 8.0, 7.55, 7.15, 6.71, 6.71, 7.15, 7.15, 7.6, 8.05, 8.49, 8.94, 9.39, 9.39, 9.39, 8.9, 8.9, 8.77, 9.24, 9.24, 8.63, 8.3, 7.2, 6.18, 5.15, 3.79, 1.98, 1.9, 2.97, 4.82, 6.45, 7.12, 6.8, 6.16, 5.29, 4.92, 4.34, 4.4, 4.4, 1.27, 5.72, 5.72, 6.04, 6.34, 6.64, 6.64, 6.64, 6.32, 6.32, 6.28, 6.28, 6.23, 7.81, 7.42, 7.2, 7.2, 7.42, 8.0, 7.76, 7.53, 7.12, 7.47, 6.4, 1.99, 0.0, -1.73, -0.96, 0.0, 0.0, 0.0, 0.0, 0.0, 0.0, 0.0, 0.0, 1.49, 1.58, 1.4, 2.69, 4.2, 5.9, 7.36, 7.78, 7.48, 7.59, 7.76, 7.58, 6.8, 6.57, 6.16, 6.02, 6.2, 6.26, 6.2, 6.45, 6.88, 6.94, 7.55, 8.0, 8.0, 7.6, 7.6, 7.15, 7.15, 7.1, 7.54, 8.0, 8.01, 8.46, 8.94, 9.83, 9.83, 9.24, 8.67, 8.48, 9.24, 9.24, 9.24, 8.72, 7.42, 6.08, 6.18, 4.74, 2.76, 0.98, 1.98, 4.0, 5.6, 7.2, 7.82, 6.82, 6.16, 5.09, 4.92, 4.92, 5.26, 5.26, 2.53, 5.72, 5.72, 6.34, 6.34, 6.34, 6.64, 6.32, 6.32, 6.32, 6.01, 6.01, 6.01, 7.81, 8.21, 7.82, 7.44, 7.07, 7.82, 7.82, 7.6, 8.0, 6.9, 6.44, 4.56, 0.0, 0.0, 0.0, 0.0, 0.0, 0.0, 0.95, 0.89, 0.89, 0.89, 1.58, 1.58, 1.4, 2.97, 3.36, 4.13, 5.14, 6.83, 7.35, 7.76, 7.81, 7.82, 8.17, 8.29, 8.0, 7.6, 7.15, 6.71, 6.64, 6.45, 6.94, 7.54, 7.55, 8.0, 8.0, 8.05, 7.6, 7.6, 7.1, 7.1, 7.54, 7.55, 8.0, 8.44, 8.9, 9.39, 9.39, 9.79, 8.8, 8.56, 7.82, 7.32, 8.43, 8.05, 7.82, 7.03, 5.77, 5.37, 3.72, 1.84, 0.96, 2.2, 4.43, 6.18, 7.15, 7.15, 6.18, 5.6, 4.98, 4.82, 4.92, 5.81, 5.36, 3.2, 6.01, 6.01, 6.01, 6.34, 6.34, 6.04, 6.32, 6.32, 6.01, 5.71, 5.41, 5.69, 7.41, 8.21, 8.21, 7.82, 7.44, 7.51, 7.41, 7.41, 7.15, 6.55, 6.44, 4.29, 1.49, 0.0, 0.0, 0.0, 0.0, 0.0, 0.95, 1.73, 2.99, 3.55, 2.6, 0.82, 1.84, 2.51, 2.47, 2.6, 3.36, 5.46, 6.32, 7.81, 7.81, 8.21, 8.3, 8.56, 8.9, 8.94, 8.49, 8.0, 8.0, 7.55, 8.0, 8.0, 8.05, 8.05, 8.49, 8.49, 8.05, 7.54, 7.54, 7.54, 7.55, 8.0, 8.0, 8.05, 8.49, 8.94, 9.39, 8.94, 8.0, 7.37, 6.6, 6.01, 5.89, 6.73, 6.11, 6.18, 5.49, 4.58, 3.72, 1.98, 1.72, 2.82, 4.26, 6.01, 6.01, 5.37, 5.58, 4.6, 4.0, 4.0, 5.26, 5.81, 5.81, 3.58, 6.01, 6.01, 6.01, 6.34, 6.04, 6.04, 6.32, 6.01, 6.01, 5.71, 5.71, 5.1, 7.76, 7.81, 9.2, 8.4, 8.43, 8.55, 7.76, 7.68, 7.69, 8.21, 7.53, 6.64, 6.51, 4.11, 0.0, 0.0, 0.0, 0.0, 0.0, 1.96, 4.42, 5.37, 4.29, 2.76, 2.2, 0.0, 0.0, 0.0, 1.4, 3.4, 5.37, 6.9, 7.89, 7.12, 8.29, 8.77, 8.9, 9.39, 8.94, 8.49, 8.45, 8.45, 8.49, 8.49, 8.49, 8.49, 8.49, 8.49, 8.05, 7.54, 7.55, 7.55, 7.55, 8.0, 8.0, 8.05, 8.05, 8.49, 8.49, 8.05, 7.6, 7.1, 5.94, 4.89, 3.55, 3.77, 4.58, 4.74, 3.91, 3.47, 2.8, 1.84, 1.75, 3.06, 4.83, 5.1, 4.74, 3.93, 2.98, 3.58, 4.02, 4.34, 4.98, 5.36, 4.92, 3.13, 5.72, 5.72, 5.72, 6.04, 6.04, 6.04, 5.72, 5.72, 5.72, 5.72, 5.1, 4.71, 6.48, 7.74, 8.73, 7.69, 8.67, 9.05, 8.3, 7.76, 8.43, 8.82, 9.35, 8.94, 8.45, 8.05, 6.07, 5.2, 4.47, 0.0, 0.0, 1.4, 4.0, 5.31, 4.43, 3.16, 1.79, -2.53, -5.36, -4.8, 3.58, 4.02, 4.4, 5.51, 6.07, 6.94, 7.1, 8.05, 8.05, 8.94, 7.6, 8.05, 8.45, 8.49, 8.49, 8.49, 8.49, 8.94, 8.49, 8.49, 8.05, 7.6, 8.05, 7.54, 7.1, 8.0, 8.44, 8.05, 8.05, 8.49, 8.49, 8.05, 8.05, 7.15, 6.26, 4.47, 2.23, 1.99, 2.99, 2.99, 2.76, 2.4, 2.6, 2.35, 3.15, 3.78, 5.28, 5.53, 4.54, 3.13, 1.58, 2.4, 3.58, 4.34, 4.4, 4.77, 4.02, 2.24, 5.72, 5.72, 5.72, 6.04, 6.04, 6.04, 5.72, 5.72, 5.72, 5.72, 5.09, 5.08, 6.4, 6.41, 6.59, 7.13, 7.9, 8.73, 8.03, 7.4, 8.18, 8.63, 8.73, 8.89, 8.05, 8.94, 7.63, 6.9, 7.06, 5.94, 1.84, 2.2, 4.4, 5.81, 5.36, 4.47, -0.0, -3.2, -1.98, -1.84, -0.0, -0.0, 1.52, 3.0, 4.74, 4.89, 7.06, 7.47, 7.37, 7.85, 8.41, 7.55, 8.49, 8.49, 8.49, 8.49, 8.94, 8.45, 8.45, 8.45, 8.0, 7.6, 7.15, 6.71, 6.64, 7.1, 8.49, 8.49, 8.49, 8.45, 8.45, 8.01, 8.45, 7.56, 6.71, 6.26, 4.92, 3.35, 2.48, 1.66, 1.99, 1.7, 1.6, 2.35, 2.99, 4.5, 5.28, 6.32, 5.43, 3.58, 1.58, 1.26, 2.68, 4.4, 3.79, 3.48, 2.21, -2.68, 5.72, 5.72, 5.72, 6.04, 6.04, 6.04, 6.04, 5.72, 6.01, 5.72, 6.0, 6.34, 6.69, 6.35, 6.41, 5.35, 6.24, 6.24, 6.76, 5.1, 5.46, 5.86, 5.69, 6.0, 6.26, 6.94, 6.8, 6.08, 7.06, 6.71, 3.16, -0.0, -0.0, 3.2, 4.56, 4.74, -0.0, -0.96, -0.0, 1.73, 1.98, 1.84, 1.99, 2.2, 3.22, 4.54, 5.6, 6.57, 7.85, 8.29, 8.29, 8.05, 8.05, 8.49, 8.45, 8.77, 8.77, 8.56, 8.56, 8.06, 7.37, 6.64, 6.71, 5.26, 6.17, 7.54, 8.49, 8.49, 8.46, 8.77, 8.77, 8.19, 8.19, 7.89, 7.11, 6.71, 6.26, 5.36, 4.38, 2.84, 0.88, 0.0, 1.6, 2.35, 3.09, 4.37, 5.86, 7.02, 7.28, 5.34, 2.4, 1.79, 3.13, 4.4, 4.29, 2.84, 2.24, -2.98, 5.72, 5.72, 6.04, 6.04, 6.04, 6.04, 6.34, 6.34, 6.34, 6.35, 6.08, 6.7, 8.22, 8.73, 9.34, 7.59, 6.59, 3.57, 3.79, 4.07, 5.89, 5.15, 4.29, 3.13, 1.55, 3.22, 3.22, 3.22, 4.84, 5.21, 1.98, -0.0, 1.03, 2.16, 2.99, 3.72, 3.0, 1.4, 2.8, 3.72, 3.97, 3.91, 3.22, 1.7, 2.98, 4.29, 5.6, 6.45, 7.54, 8.05, 8.05, 8.05, 8.0, 8.29, 8.17, 8.72, 8.8, 8.21, 7.82, 6.8, 5.81, 4.77, 4.29, 4.98, 6.45, 8.05, 8.9, 8.77, 8.99, 8.72, 8.4, 8.0, 7.6, 7.35, 6.79, 6.51, 6.21, 6.2, 5.73, 5.26, 1.98, 0.0, 0.0, 1.52, 3.0, 4.56, 5.94, 7.64, 7.96, 6.44, 2.98, 2.24, 2.8, 4.47, 5.26, 3.58, -0.0, -1.6, 6.04, 6.04, 6.04, 6.04, 6.34, 6.34, 6.34, 6.34, 6.06, 6.35, 6.64, 6.98, 8.22, 9.94, 11.08, 10.21, 8.06, 6.79, 6.51, 7.52, 8.03, 7.6, 6.23, 7.63, 4.43, 3.22, 1.55, 0.57, 2.48, 3.79, 3.47, 3.22, 3.22, 2.76, 2.76, 2.76, 3.22, 3.91, 4.74, 5.49, 5.49, 4.43, 3.22, 1.7, 1.7, 2.95, 5.21, 6.51, 7.15, 7.6, 6.64, 7.54, 7.37, 7.85, 7.53, 7.76, 7.2, 6.01, 4.58, 2.68, 1.05, 2.64, 3.72, 5.58, 6.88, 8.05, 8.45, 8.56, 7.81, 7.76, 7.02, 7.06, 6.7, 6.55, 6.21, 6.16, 5.6, 5.94, 5.59, 6.02, 4.98, 2.0, 0.0, 0.89, 2.2, 4.03, 6.14, 8.22, 8.27, 5.72, 2.97, 1.58, 2.21, 4.47, 5.81, 4.47, 1.9, -0.0, 6.34, 6.04, 6.04, 6.34, 6.34, 6.34, 6.34, 6.34, 6.35, 6.67, 6.97, 6.98, 8.22, 9.42, 11.34, 12.33, 12.46, 11.49, 11.12, 11.18, 11.18, 11.57, 11.05, 9.24, 7.4, 5.09, 2.97, 1.86, 1.49, 1.49, 4.4, 4.43, 3.91, 3.63, 2.99, 2.99, 3.35, 4.54, 5.21, 5.58, 5.58, 4.11, 2.2, 0.96, -0.0, 1.84, 3.22, 4.84, 6.07, 6.71, 5.36, 6.26, 5.81, 5.29, 6.36, 6.51, 6.71, 3.97, -2.2, -2.99, -0.0, 1.75, 3.77, 4.74, 6.0, 6.94, 7.6, 8.0, 6.82, 5.36, 5.21, 4.74, 5.24, 5.37, 5.49, 5.58, 4.89, 4.89, 5.43, 5.82, 5.75, 4.98, 1.83, 1.03, 1.73, 4.34, 6.98, 7.22, 6.68, 5.46, 3.6, 3.13, 3.58, 5.29, 6.2, 5.73, 4.02, 1.9, 6.34, 6.34, 6.34, 6.34, 6.34, 6.34, 6.34, 6.65, 6.67, 6.67, 6.97, 7.3, 7.9, 9.08, 10.51, 12.28, 12.83, 12.98, 12.75, 12.4, 12.5, 12.07, 11.62, 10.71, 8.92, 7.13, 5.34, 3.98, 3.13, 2.68, 3.07, 4.98, 5.36, 4.11, 3.63, 3.63, 4.19, 4.98, 5.94, 5.94, 4.98, 2.95, 1.7, -0.0, -0.0, -0.0, 1.08, 4.11, 4.43, 5.21, 6.0, 5.94, 3.22, 1.63, 1.73, 2.6, 6.08, 5.36, -4.47, -3.55, -0.85, 1.47, 2.69, 2.99, 3.72, 5.24, 5.75, 6.02, 6.26, 2.16, 0.94, 0.94, 2.82, 3.72, 3.72, 4.74, 4.74, 4.74, 4.29, 4.74, 5.49, 5.58, 4.11, 3.22, 2.26, 5.21, 5.9, 4.5, 4.29, 4.46, 4.46, 4.6, 4.8, 5.6, 6.28, 6.64, 5.36, 3.58, 6.34, 6.34, 6.34, 6.34, 6.34, 6.34, 6.34, 6.95, 6.95, 6.97, 6.97, 7.3, 7.9, 8.82, 9.94, 11.34, 12.28, 13.02, 13.26, 12.64, 12.4, 12.47, 12.06, 11.18, 9.83, 8.49, 6.68, 5.81, 4.92, 4.47, 4.47, 4.47, 6.58, 6.0, 4.74, 4.02, 5.06, 6.0, 7.01, 5.73, 4.82, 2.0, -0.0, -0.0, -0.0, -0.0, -0.0, 1.7, 1.7, 3.22, 3.47, 3.47, 1.63, -0.0, 1.63, 3.72, 5.58, 5.51, 3.93, -0.0, -0.94, -0.0, 1.49, 1.49, 2.82, 4.56, 5.06, 6.08, 5.58, 3.48, -1.98, -1.98, 0.0, 1.08, 2.2, 1.99, 2.8, 3.0, 3.72, 3.72, 4.58, 4.74, 4.81, 4.74, 5.37, 5.36, 3.4, 0.89, 1.7, 3.91, 5.49, 4.74, 4.74, 5.46, 6.21, 6.2, 4.92, 4.92, 6.34, 6.34, 6.34, 6.34, 6.34, 6.34, 6.34, 6.95, 6.95, 6.97, 7.27, 7.59, 7.9, 8.5, 9.37, 10.79, 11.75, 12.51, 13.02, 12.94, 12.64, 12.4, 12.02, 11.18, 10.73, 9.82, 8.92, 8.05, 7.6, 6.71, 6.26, 6.23, 5.81, 7.5, 6.0, 4.43, 5.49, 6.16, 6.71, 5.81, 3.39, 1.13, -0.0, -0.0, -0.0, -0.0, -0.0, -0.0, -0.0, 1.7, 1.7, 1.98, 2.8, 3.47, 3.47, 4.43, 5.58, 4.74, 4.56, 2.82, 0.96, 1.41, 1.84, 2.8, 3.2, 4.29, 4.43, 6.9, 7.45, 3.48, -4.6, -5.29, -4.92, -3.82, -2.21, 1.79, 0.0, 0.0, 0.88, 1.98, 2.8, 3.47, 5.06, 5.37, 5.49, 4.0, 2.2, 0.0, 0.0, 2.64, 4.42, 4.56, 5.06, 6.08, 6.07, 6.0, 5.09, 5.09, 6.34, 6.34, 6.34, 6.34, 6.34, 6.34, 6.64, 6.95, 6.95, 7.27, 7.27, 7.59, 8.19, 8.45, 9.02, 10.23, 11.22, 12.11, 12.33, 12.78, 12.51, 12.75, 12.46, 11.62, 11.16, 11.16, 10.71, 9.83, 8.94, 8.47, 7.58, 7.07, 6.61, 8.05, 5.2, 4.81, 4.74, 6.0, 5.09, 4.0, 1.55, 1.08, -0.0, -0.0, -0.0, -0.0, -0.0, -0.0, -0.0, -0.0, 1.55, 1.7, 3.22, 3.22, 4.43, 5.6, 5.36, 4.74, 4.02, 3.0, 3.22, 3.79, 3.48, 3.79, 5.21, 4.98, 6.08, 7.06, 7.15, 0.0, -8.05, -6.02, -4.89, -1.84, -0.0, 1.98, 1.27, 0.0, 0.0, 0.0, 1.14, 2.32, 4.58, 5.06, 4.43, 2.53, 3.13, 0.96, 1.84, 3.77, 3.69, 3.91, 4.46, 5.3, 6.11, 5.46, 4.84, 4.84, 6.34, 6.34, 6.34, 6.34, 6.34, 6.34, 6.64, 6.95, 6.95, 7.55, 7.27, 7.59, 7.86, 8.19, 8.45, 9.5, 10.41, 11.36, 11.92, 12.3, 12.64, 12.64, 12.3, 11.61, 11.18, 11.18, 10.27, 9.77, 8.79, 8.21, 7.74, 7.26, 6.94, 6.23, 4.89, 5.6, 4.29, 4.11, 2.98, 1.84, -0.0, -0.0, -0.0, -0.0, -0.0, -0.0, -0.0, -0.0, -0.0, -0.0, 2.2, 2.2, 3.79, 4.84, 4.84, 5.21, 5.21, 4.43, 5.21, 4.84, 4.84, 4.46, 4.4, 4.66, 5.09, 4.82, 5.73, 7.45, 7.6, 4.8, -4.43, -2.2, 1.05, 3.0, 4.42, 6.01, 6.11, 4.77, 0.0, 0.0, 0.0, 1.99, 3.72, 2.6, 1.19, 2.0, 3.22, 2.95, 2.8, 2.82, 2.67, 2.69, 3.8, 5.21, 5.24, 4.58, 4.11, 4.11, 6.34, 6.34, 6.34, 6.34, 6.34, 6.34, 6.64, 6.95, 6.95, 7.55, 7.55, 7.59, 7.86, 7.86, 8.19, 10.63, 9.86, 10.3, 10.4, 11.39, 12.94, 13.26, 11.87, 12.09, 11.36, 12.27, 6.6, 8.95, 8.95, 5.6, 5.75, 6.0, 5.6, 5.57, 5.26, 4.92, 4.02, 3.58, 4.0, 2.98, 1.83, 1.05, 1.84, 1.41, 2.8, 3.22, 1.55, -0.0, -0.0, -0.0, -0.0, 1.7, 2.98, 3.22, 4.43, 5.21, 5.21, 5.21, 5.21, 4.84, 5.09, 5.09, 5.09, 4.02, 4.02, 4.47, 5.36, 6.71, 7.55, 8.91, 7.67, 7.42, 9.36, 10.32, 10.68, 9.75, 9.49, 8.33, 4.92, 0.0, 1.14, 3.22, 1.98, 0.82, 0.0, 1.98, 2.8, 2.98, 3.91, 3.47, 2.82, 2.69, 3.32, 3.8, 5.53, 4.58, 3.47, 3.47, 6.34, 6.34, 6.34, 6.34, 6.34, 6.34, 6.64, 6.95, 6.95, 7.23, 7.55, 7.55, 8.15, 7.86, 8.45, 9.3, 8.94, 8.65, 10.04, 11.6, 13.19, 11.88, 10.83, 11.28, 10.29, 9.43, 6.79, 3.09, 2.79, 2.44, 2.79, 3.43, 4.0, 4.4, 4.6, 4.77, 4.44, 4.43, 4.02, 3.98, 3.82, 3.6, 3.35, 3.72, 4.0, 6.0, 3.48, -0.0, -0.0, -0.0, -0.0, 1.7, 1.84, 3.47, 3.79, 4.54, 5.72, 4.8, 4.98, 5.64, 5.36, 5.36, 5.36, 4.92, 3.39, 3.82, 4.82, 6.2, 7.37, 8.56, 9.75, 12.09, 13.92, 14.67, 14.3, 12.96, 11.59, 10.7, 5.4, 1.19, 0.0, 0.0, -1.41, -1.05, 0.0, 0.0, 1.7, 1.83, 3.35, 3.35, 3.91, 2.82, 1.75, 2.69, 3.69, 4.58, 3.91, 3.91, 6.34, 6.34, 6.34, 6.34, 6.34, 6.34, 6.64, 6.95, 6.95, 7.23, 7.55, 7.81, 8.15, 8.15, 8.45, 9.02, 8.94, 8.65, 8.38, 10.9, 11.9, 8.65, 8.38, 8.73, 9.21, 8.28, 5.88, 3.39, 1.73, 1.34, 0.8, 1.26, 2.21, 3.35, 3.88, 4.11, 4.3, 4.34, 4.3, 3.98, 3.58, 3.53, 3.2, 3.35, 3.88, 6.0, 3.48, -0.0, -0.0, -0.0, -0.0, -0.0, 1.84, 3.47, 4.74, 4.89, 5.58, 5.75, 6.71, 5.81, 5.36, 4.92, 4.92, 4.47, 2.8, 2.84, 4.0, 5.4, 6.16, 7.2, 9.13, 11.36, 13.39, 13.39, 12.27, 11.61, 10.79, 11.61, 9.97, 7.37, 3.82, -3.13, -4.77, -3.58, -1.99, 0.0, 0.0, 0.88, 1.66, 3.07, 4.11, 3.49, 1.03, 0.83, 2.35, 3.47, 3.35, 3.35, 6.34, 6.34, 6.34, 6.34, 6.34, 6.34, 6.64, 6.95, 6.95, 7.23, 7.55, 7.55, 8.15, 8.15, 8.73, 9.08, 9.3, 9.3, 9.94, 11.07, 10.3, 8.28, 6.56, 6.79, 8.0, 8.8, 8.64, 7.51, 5.36, 3.13, 1.34, 0.89, 1.7, 2.5, 3.6, 4.11, 4.19, 4.19, 4.3, 3.98, 3.58, 3.09, 2.91, 3.07, 3.72, 3.35, 3.48, -0.0, -1.84, -0.0, -0.0, -0.0, 1.41, 3.47, 4.43, 4.74, 5.95, 6.99, 6.71, 5.09, 3.72, 3.82, 3.13, 2.68, 1.9, 2.53, 3.35, 3.93, 4.6, 6.4, 7.89, 9.03, 6.71, 3.58, 4.57, 6.08, 8.32, 10.09, 10.79, 10.49, 8.94, 4.98, -2.21, -3.72, -2.2, -0.96, 0.0, 0.96, 1.66, 2.53, 3.84, 4.0, 1.98, 0.88, 1.7, 2.76, 3.22, 3.22, 6.34, 6.34, 6.34, 6.34, 6.34, 6.34, 6.34, 6.64, 6.95, 7.23, 7.55, 7.55, 8.15, 8.15, 8.73, 8.73, 9.3, 9.66, 10.23, 10.96, 11.2, 10.42, 8.96, 7.71, 7.48, 7.76, 8.72, 9.11, 8.42, 6.68, 4.92, 3.13, 2.24, 2.6, 3.2, 3.88, 4.4, 4.6, 4.34, 3.98, 3.58, 3.13, 2.91, 2.68, 3.35, 2.84, -0.0, -1.7, -1.52, -1.52, -0.0, -0.0, 1.52, 2.8, 2.8, 4.74, 5.15, 6.18, 6.71, 3.16, 2.2, 2.84, 2.24, -0.0, -0.0, 1.4, 2.53, 2.84, 4.0, 4.57, 6.51, 6.26, -4.74, -3.0, -0.0, 2.97, 5.09, 7.33, 8.93, 9.86, 10.49, 9.83, 6.64, 0.0, -2.23, -1.08, 0.0, 0.0, 1.08, 1.19, 2.53, 3.22, 2.97, 1.58, 1.2, 2.98, 3.6, 3.6, 6.34, 6.34, 6.34, 6.34, 6.34, 6.34, 6.34, 6.64, 6.95, 7.23, 7.23, 7.55, 7.81, 8.15, 8.73, 8.73, 9.3, 9.86, 9.86, 10.41, 11.08, 11.41, 10.91, 10.18, 8.72, 7.6, 8.0, 8.72, 8.96, 8.21, 6.97, 5.7, 3.98, 3.53, 3.39, 4.11, 4.4, 4.6, 4.6, 3.87, 3.53, 3.13, 2.63, 2.4, 2.53, 1.16, -1.7, -2.8, -1.52, -1.52, -0.0, -0.0, 1.52, 1.52, 3.0, 4.02, 3.91, 4.74, 6.0, 3.48, 0.0, 0.0, 2.24, -1.4, -0.0, 1.13, 1.13, 4.0, 3.9, 4.92, 5.81, 3.48, -3.22, -2.95, -0.0, 4.0, 4.46, 4.75, 6.32, 7.32, 9.2, 9.89, 9.36, 6.71, 3.13, 2.24, 2.24, 2.24, 1.79, 0.0, 0.0, 1.13, 1.58, 2.0, 2.68, 3.13, 3.95, 3.95, 6.34, 6.34, 6.34, 6.34, 6.34, 6.34, 6.34, 6.64, 6.95, 7.23, 7.23, 7.55, 7.81, 8.15, 8.38, 8.73, 9.3, 9.3, 9.86, 10.41, 10.68, 11.08, 11.41, 11.21, 10.6, 9.21, 8.22, 7.81, 8.22, 8.48, 8.0, 7.26, 6.04, 5.09, 4.77, 4.19, 4.6, 4.6, 4.6, 4.11, 3.53, 2.68, 2.68, 2.0, 1.49, -0.0, -1.2, -1.2, -1.2, -0.0, -0.0, 1.41, -0.0, 1.63, 3.0, 3.0, 2.8, 3.63, 4.74, 4.4, 0.0, -1.9, -3.2, -2.48, -0.0, -0.0, 2.23, 3.35, 4.02, 5.73, 6.64, 6.26, 4.47, -3.13, 0.0, 4.34, 3.58, 2.95, 4.02, 5.37, 7.32, 9.08, 9.4, 8.91, 7.54, 4.98, 3.48, 2.95, 1.19, -0.0, -3.13, -1.4, 0.0, 1.79, 2.68, 4.02, 4.66, 4.66, 6.01, 6.01, 6.01, 6.34, 6.34, 6.34, 6.34, 6.64, 6.95, 6.95, 7.23, 7.55, 7.81, 8.15, 8.38, 8.73, 8.94, 9.3, 9.86, 10.04, 10.3, 10.68, 11.08, 11.41, 11.12, 10.42, 9.63, 8.3, 7.81, 7.81, 7.81, 8.0, 7.09, 6.79, 5.81, 5.09, 5.09, 4.6, 4.4, 4.11, 3.39, 3.07, 2.24, 2.12, 1.26, -0.0, -0.57, -1.26, -1.26, -0.6, -0.0, 0.54, -0.0, -0.0, 1.4, 2.66, 2.8, 2.6, 2.8, 5.06, 5.51, 3.58, -2.53, -2.95, -1.08, 1.08, 2.48, 3.72, 3.9, 4.57, 5.51, 7.45, 4.47, 1.13, 2.16, 2.8, 2.53, 1.8, 3.22, 3.91, 5.15, 6.54, 7.89, 8.05, 8.01, 7.55, 6.2, 4.98, 3.79, 2.0, -0.0, -2.4, 0.0, 1.0, 3.2, 4.8, 4.8, 4.8, 6.01, 6.01, 6.01, 6.34, 6.34, 6.34, 6.34, 6.34, 6.64, 6.95, 7.23, 7.55, 7.81, 8.15, 8.38, 8.73, 8.94, 9.3, 9.86, 9.86, 10.3, 10.3, 10.55, 10.68, 10.91, 11.12, 10.42, 9.42, 8.72, 7.81, 7.81, 7.71, 7.71, 7.31, 7.31, 6.8, 6.1, 5.6, 5.31, 4.4, 3.7, 2.91, 2.63, 2.24, 1.79, 1.2, -0.0, -0.63, -0.63, -0.0, -0.0, -0.0, -0.0, 0.61, 0.96, 1.72, 1.63, 1.52, 3.22, 4.74, 7.06, 4.4, -0.0, -1.99, -0.0, 1.08, 2.48, 4.34, 4.02, 4.0, 4.98, 5.94, 5.73, 5.4, 4.89, 2.8, 1.05, 0.87, 2.48, 2.48, 1.4, 1.58, 2.6, 4.38, 5.81, 6.66, 6.71, 5.29, 4.57, 4.0, 3.2, 2.68, 0.0, 0.98, 3.07, 4.46, 4.81, 4.81, 5.72, 5.72, 5.72, 5.72, 6.34, 6.34, 6.34, 6.34, 6.64, 6.95, 7.23, 7.55, 7.81, 7.81, 8.38, 8.38, 8.94, 9.3, 9.5, 10.13, 10.13, 10.3, 10.3, 10.55, 10.8, 10.91, 10.62, 10.21, 9.71, 9.01, 8.51, 8.0, 7.48, 7.48, 7.48, 7.08, 6.8, 6.28, 5.6, 5.08, 4.27, 3.39, 3.09, 3.39, 2.68, 1.9, 0.6, 0.0, -0.45, 0.45, 0.45, 0.45, -0.0, -0.0, -0.0, 0.96, 1.32, 1.32, 3.72, 5.06, 5.58, 3.79, -0.0, -0.0, -0.0, 1.7, 3.82, 4.02, 4.47, 4.82, 4.98, 5.6, 6.45, 6.94, 6.88, 4.98, 0.0, 0.0, 0.96, 0.0, -3.58, -2.79, -1.9, -0.8, 2.24, 3.58, 4.02, 4.47, 4.47, 4.02, 4.02, 4.02, 2.0, 1.6, 2.4, 3.64, 3.64, 3.64, 5.72, 5.72, 5.72, 5.72, 6.04, 6.34, 6.34, 6.34, 6.64, 6.64, 7.23, 7.23, 7.81, 7.81, 8.15, 8.65, 9.01, 9.21, 9.76, 9.76, 9.76, 9.76, 9.76, 10.16, 10.16, 10.16, 9.88, 9.88, 9.71, 9.2, 9.01, 8.51, 8.0, 7.48, 7.48, 7.48, 7.48, 6.95, 6.28, 5.37, 4.55, 4.11, 3.82, 5.26, 4.34, 1.24, 0.0, -0.6, -0.63, 0.45, 0.0, 0.45, -0.0, -0.0, -0.0, -0.0, -0.0, 1.32, 2.64, 3.55, 2.8, -0.0, -0.0, -0.0, -0.0, 2.95, 3.82, 3.82, 4.34, 4.57, 4.98, 4.89, 6.0, 6.88, 7.85, 7.12, 3.22, 0.0, 0.0, -1.13, -3.58, -2.68, -2.15, -1.49, -0.95, -0.0, 1.34, 1.98, 3.48, 4.22, 4.0, 4.15, 5.09, 3.22, 3.07, 3.11, 3.0, 3.0, 5.72, 5.72, 5.72, 5.72, 6.04, 6.34, 6.34, 6.34, 6.64, 6.95, 6.95, 7.23, 7.55, 7.81, 8.44, 8.65, 9.01, 9.21, 9.58, 9.76, 9.76, 9.76, 9.76, 9.76, 10.02, 9.63, 9.88, 9.48, 9.71, 9.2, 9.2, 8.8, 8.51, 8.0, 7.87, 7.23, 7.23, 7.23, 6.95, 6.03, 5.75, 4.69, 4.4, 4.44, 4.92, 4.47, -1.9, -2.6, -1.7, -1.2, -0.45, 0.45, 0.45, -0.0, -0.0, -0.0, 0.53, 1.13, 1.84, 1.84, -0.0, -0.0, -0.0, -0.0, 0.96, 2.2, 3.35, 4.0, 2.48, 3.79, 4.43, 3.91, 3.63, 4.98, 7.12, 8.72, 8.17, 3.91, 0.0, -2.2, -2.53, -1.34, -2.17, -2.17, -1.2, -0.0, 1.34, 1.74, 3.16, 3.74, 3.9, 4.57, 5.05, 5.2, 4.84, 3.64, 3.0, 3.0, 5.72, 5.72, 5.72, 5.72, 6.04, 6.34, 6.34, 6.34, 6.64, 6.95, 6.95, 7.23, 7.55, 7.81, 8.08, 8.65, 8.65, 9.21, 9.21, 9.58, 9.76, 9.76, 9.76, 9.76, 9.63, 9.63, 9.63, 9.35, 9.6, 9.71, 9.48, 9.2, 8.8, 8.28, 7.76, 7.61, 7.61, 7.23, 7.07, 6.7, 6.03, 5.75, 5.31, 5.24, 5.36, 5.81, -0.0, -1.7, -1.79, -1.34, -0.89, 0.45, 0.45, -0.0, -0.0, 0.57, 0.54, 0.61, 0.57, 0.89, 0.96, 0.96, -0.0, 1.08, 1.27, 2.23, 3.72, 4.02, 1.84, 3.0, 3.72, 3.91, 2.99, 2.99, 5.58, 8.72, 10.0, 9.03, 5.24, 0.0, -1.74, -2.21, -1.79, -1.79, -1.34, 0.0, 0.45, 2.54, 3.13, 3.58, 3.58, 4.47, 6.07, 6.94, 6.07, 5.06, 3.55, 3.55, 5.72, 5.72, 5.72, 5.72, 6.04, 6.34, 6.34, 6.34, 6.64, 6.95, 6.95, 7.23, 7.23, 8.08, 8.08, 8.44, 8.65, 9.01, 9.21, 9.21, 9.21, 9.21, 9.38, 9.38, 9.21, 9.48, 9.1, 8.96, 11.02, 8.96, 9.35, 9.35, 8.96, 8.68, 8.68, 8.15, 7.61, 7.61, 7.23, 7.07, 6.95, 6.28, 6.1, 5.99, 5.7, 5.81, 5.33, 2.91, 1.2, 0.45, 0.45, 0.0, 0.89, 0.89, 1.34, 1.26, 1.24, 0.65, 0.61, 0.59, 1.99, 1.99, 1.08, 1.98, 2.53, 2.53, 3.72, 5.36, 4.4, 1.7, 2.0, 3.93, 5.58, 4.29, 4.58, 7.81, 9.65, 10.04, 8.43, 5.34, 0.0, -1.8, -2.53, -1.7, -1.27, -0.63, 0.0, 0.89, 3.13, 3.58, 4.02, 4.47, 5.81, 7.6, 7.2, 6.25, 4.11, 4.11, 5.72, 5.72, 5.72, 5.72, 6.04, 6.34, 6.34, 6.34, 6.64, 6.95, 6.95, 7.23, 7.23, 7.55, 8.08, 8.08, 8.65, 8.65, 9.01, 9.21, 9.21, 9.21, 9.21, 9.21, 9.21, 9.48, 9.1, 9.1, 9.1, 10.66, 7.9, 7.9, 8.27, 8.43, 8.43, 8.68, 8.15, 7.61, 7.23, 7.23, 6.95, 6.56, 6.6, 6.3, 6.04, 6.23, 6.26, 5.81, 4.47, 3.13, 2.24, 1.7, 1.2, 1.79, 1.79, 1.7, 1.86, 1.2, 1.2, 1.16, 1.84, 1.8, 3.16, 2.53, 2.53, 1.4, 2.53, 3.72, 5.36, 4.47, 2.68, 3.58, 5.51, 6.55, 5.89, 5.76, 6.64, 6.95, 7.33, 7.67, 5.43, 0.98, -1.66, -2.0, -0.99, -0.42, 0.0, 0.6, 3.39, 3.9, 4.02, 4.47, 5.36, 6.71, 7.56, 7.6, 5.36, 5.36, 5.72, 5.72, 5.72, 5.72, 6.04, 6.34, 6.34, 6.34, 6.64, 6.95, 6.95, 7.23, 7.23, 7.23, 8.08, 8.08, 8.08, 8.65, 8.65, 9.21, 9.21, 9.21, 9.21, 9.21, 9.21, 9.48, 9.1, 8.84, 9.21, 9.35, 8.28, 7.23, 7.35, 7.72, 7.9, 8.43, 8.28, 8.15, 7.61, 7.23, 6.95, 6.56, 6.8, 6.79, 6.47, 6.16, 6.23, 5.79, 5.81, 4.92, 4.02, 3.09, 2.63, 2.68, 2.24, 2.24, 2.17, 1.86, 1.61, 1.2, 2.98, 3.48, 3.16, 1.8, 1.13, 1.13, 1.4, 1.4, 3.16, 4.0, 3.39, 4.92, 6.4, 7.76, 9.0, 6.95, 3.55, 3.0, 4.29, 6.68, 7.67, 5.82, 1.7, 0.0, -0.88, -1.0, -0.54, 0.43, 3.22, 4.22, 4.57, 4.57, 4.85, 5.81, 6.22, 7.28, 7.28, 7.28, 5.72, 5.72, 5.72, 5.72, 6.04, 6.34, 6.34, 6.34, 6.64, 6.95, 6.95, 7.23, 7.23, 7.23, 7.85, 8.08, 8.08, 8.65, 8.65, 8.65, 9.21, 9.21, 9.21, 9.21, 9.21, 9.48, 9.1, 8.84, 9.21, 9.48, 9.2, 8.51, 7.23, 7.23, 7.35, 7.9, 7.9, 8.15, 8.15, 7.61, 7.48, 6.95, 6.8, 6.6, 6.36, 6.51, 6.6, 6.16, 5.78, 5.34, 4.89, 4.44, 3.54, 3.53, 3.13, 2.68, 2.68, 2.17, 2.4, 1.9, 1.88, 2.98, 3.48, 1.8, -0.0, -0.0, 1.6, 2.8, 2.8, 3.2, 2.97, 4.92, 7.06, 9.03, 10.66, 10.4, 7.76, 5.6, 4.74, 6.32, 6.98, 7.69, 6.08, 3.11, 0.0, -0.98, -0.59, 1.7, 3.63, 4.81, 5.15, 4.81, 4.54, 4.8, 5.75, 5.81, 6.94, 6.94, 5.72, 5.72, 5.72, 5.72, 5.72, 6.34, 6.34, 6.34, 6.64, 6.95, 6.95, 7.23, 7.23, 7.55, 7.55, 8.08, 8.08, 8.65, 8.65, 8.65, 8.84, 9.21, 9.21, 9.21, 9.21, 9.1, 9.1, 9.1, 9.1, 9.1, 9.35, 9.2, 8.51, 8.0, 7.23, 7.23, 7.61, 7.9, 8.15, 7.76, 7.48, 6.95, 6.8, 6.6, 6.6, 6.79, 6.94, 6.47, 6.04, 5.7, 5.24, 4.77, 4.44, 3.98, 3.53, 3.13, 2.68, 2.68, 2.6, 2.4, 2.68, 3.07, 4.46, 1.98, -0.0, -0.0, 2.21, 3.2, 3.39, 3.39, 4.92, 4.47, 8.05, 9.49, 11.37, 11.5, 10.85, 9.75, 8.4, 6.68, 6.24, 7.02, 7.32, 6.7, 5.06, 2.35, 1.63, 3.33, 4.95, 5.69, 6.01, 5.69, 5.06, 4.74, 4.84, 5.16, 6.55, 6.55, 5.72, 5.72, 5.72, 5.72, 5.72, 6.34, 6.34, 6.34, 6.64, 6.95, 6.95, 7.23, 7.23, 7.23, 7.55, 7.85, 8.08, 8.08, 8.65, 8.65, 8.65, 8.84, 8.84, 9.21, 8.84, 8.84, 9.1, 9.1, 9.1, 8.93, 9.1, 9.35, 9.2, 8.68, 8.0, 7.48, 7.23, 7.61, 7.61, 7.76, 7.23, 7.08, 6.8, 8.3, 6.1, 6.51, 6.6, 6.72, 6.47, 5.99, 5.09, 4.8, 4.77, 4.34, 3.98, 3.53, 3.13, 3.13, 2.63, 2.63, 2.91, 3.2, 5.09, 2.23, -0.0, 2.53, 2.8, 3.2, 3.2, 2.53, 3.82, 4.34, 7.15, 10.28, 11.11, 11.02, 10.66, 11.02, 10.04, 7.69, 6.39, 6.01, 7.06, 7.07, 7.03, 6.64, 6.08, 6.44, 7.15, 7.41, 7.41, 6.73, 5.69, 4.58, 4.43, 4.54, 5.43, 6.26, 5.72, 5.72, 5.72, 5.72, 5.72, 6.34, 6.34, 6.34, 6.34, 6.95, 6.95, 6.95, 7.23, 7.23, 7.55, 7.85, 8.08, 8.08, 8.65, 8.65, 8.65, 8.65, 8.84, 8.84, 8.84, 8.84, 9.1, 8.93, 8.93, 8.93, 8.93, 8.93, 8.72, 8.96, 8.68, 8.0, 7.48, 7.23, 7.23, 7.61, 7.23, 7.08, 6.95, 8.72, 6.1, 6.28, 6.03, 6.28, 6.1, 5.81, 5.57, 5.09, 4.8, 4.77, 4.34, 3.98, 3.53, 3.13, 3.13, 3.07, 3.07, 3.39, 5.51, 2.21, 1.2, 2.53, 2.53, 2.21, 2.21, 3.2, 3.39, 4.92, 5.81, 8.45, 11.11, 10.96, 9.67, 10.04, 9.52, 8.3, 7.07, 6.06, 6.44, 6.44, 6.54, 7.71, 7.89, 8.3, 8.4, 8.95, 8.4, 8.0, 7.2, 5.82, 4.89, 4.11, 4.81, 5.43, 5.72, 5.72, 5.72, 5.72, 5.72, 6.04, 6.34, 6.34, 6.34, 6.64, 6.95, 6.95, 7.23, 7.23, 7.55, 7.55, 8.08, 8.08, 8.65, 8.65, 8.65, 8.65, 8.65, 8.84, 8.84, 8.84, 8.65, 8.93, 8.93, 8.93, 8.55, 8.55, 8.55, 8.82, 8.43, 8.68, 8.0, 7.48, 7.23, 7.23, 7.23, 7.07, 6.95, 7.2, 8.72, 6.28, 5.59, 5.01, 5.58, 5.6, 5.4, 5.09, 5.09, 4.77, 4.77, 4.34, 3.98, 3.58, 3.58, 3.13, 3.07, 3.53, 3.53, 4.0, -0.0, 2.53, 1.4, 1.4, 2.21, 3.39, 4.02, 4.02, 5.81, 8.38, 10.2, 9.49, 9.36, 8.79, 8.79, 8.3, 7.92, 7.07, 6.44, 6.07, 6.4, 7.47, 7.89, 8.3, 8.82, 8.82, 8.72, 8.3, 8.06, 6.7, 5.6, 5.21, 4.46, 4.81, 5.72, 5.72, 5.72, 5.72, 5.72, 6.04, 6.34, 6.34, 6.34, 6.34, 6.64, 6.95, 6.95, 7.23, 7.23, 7.55, 8.08, 8.08, 8.08, 8.65, 8.65, 8.65, 8.65, 8.65, 8.65, 8.65, 8.65, 8.93, 8.55, 8.55, 8.55, 8.55, 8.55, 8.55, 8.82, 8.43, 8.28, 8.0, 7.48, 7.23, 7.23, 7.07, 7.07, 7.23, 8.0, 8.8, 4.65, 3.2, 3.79, 4.65, 5.08, 4.9, 5.09, 5.09, 4.77, 4.77, 4.34, 3.98, 3.58, 3.58, 3.13, 3.58, 5.64, 4.0, 2.53, -0.0, 1.9, 2.53, 3.2, 4.02, 4.47, 4.47, 6.07, 7.45, 8.49, 9.74, 8.99, 8.18, 6.95, 6.95, 6.95, 7.69, 6.35, 6.08, 6.08, 6.7, 8.0, 8.0, 8.0, 8.3, 8.3, 8.14, 7.63, 6.7, 6.16, 5.75, 5.21, 5.21, 5.72, 5.72, 5.72, 5.72, 5.72, 6.04, 6.04, 6.34, 6.34, 6.34, 6.64, 6.64, 6.95, 7.23, 7.23, 7.55, 7.85, 8.08, 8.08, 8.65, 8.65, 8.65, 8.65, 8.65, 8.65, 8.65, 8.65, 8.29, 8.55, 8.55, 8.55, 8.55, 8.55, 8.18, 8.43, 8.43, 8.68, 8.28, 8.0, 7.48, 7.23, 7.23, 7.07, 7.23, 8.15, 7.81, 6.47, 4.6, 3.43, 4.0, 4.0, 4.8, 4.8, 4.6, 4.6, 4.77, 4.34, 3.98, 3.98, 3.58, 3.58, 3.58, 3.98, 5.51, 3.6, 3.13, 3.13, 3.58, 3.58, 4.02, 4.47, 4.92, 6.51, 6.2, 8.38, 9.29, 8.9, 8.06, 6.18, 4.87, 4.83, 6.01, 6.06, 6.08, 6.44, 7.2, 7.42, 8.17, 8.17, 7.76, 7.89, 8.14, 8.06, 7.12, 6.21, 5.82, 5.82, 5.82, 5.72, 5.72, 5.72, 5.72, 5.72, 5.72, 6.04, 6.04, 6.34, 6.34, 6.34, 6.64, 6.95, 7.23, 7.23, 7.23, 7.85, 8.08, 8.08, 8.29, 8.65, 8.65, 8.65, 8.65, 8.65, 8.65, 8.65, 8.29, 8.55, 8.55, 8.55, 8.55, 8.55, 8.18, 8.27, 8.27, 8.43, 8.15, 8.15, 7.61, 7.23, 7.23, 7.23, 7.23, 7.23, 7.81, 7.74, 7.06, 5.57, 4.27, 3.72, 3.88, 4.27, 4.4, 4.6, 4.6, 4.34, 4.3, 3.98, 3.98, 3.54, 3.58, 3.58, 6.07, 4.4, 4.02, 4.02, 3.58, 3.58, 4.47, 4.92, 5.26, 5.73, 6.64, 7.55, 8.45, 9.83, 10.25, 9.39, 8.05, 6.94, 6.51, 6.98, 7.45, 7.92, 8.36, 9.24, 9.24, 9.06, 9.06, 8.56, 8.56, 8.14, 7.35, 6.8, 6.8, 6.8, 6.8, 5.72, 5.72, 5.72, 5.72, 5.72, 5.72, 5.72, 6.04, 6.04, 6.34, 6.34, 6.64, 6.64, 6.95, 7.23, 7.23, 7.85, 8.08, 8.08, 8.08, 8.29, 8.65, 8.65, 8.65, 8.65, 8.65, 8.29, 8.29, 8.37, 8.37, 8.55, 8.55, 8.18, 8.43, 8.27, 8.27, 7.9, 7.9, 8.15, 7.76, 7.61, 7.23, 7.23, 7.48, 6.95, 7.08, 7.51, 7.74, 7.4, 5.99, 4.6, 3.7, 3.72, 3.88, 4.11, 4.19, 4.19, 4.3, 4.3, 3.87, 3.98, 3.53, 3.58, 4.02, 6.07, 4.66, 4.47, 4.47, 4.34, 4.77, 5.94, 5.26, 6.17, 7.1, 8.05, 8.49, 9.8, 11.51, 11.95, 11.36, 10.89, 10.62, 10.26, 10.28, 10.28, 9.81, 9.81, 10.16, 10.16, 9.54, 9.54, 7.89, 8.17, 7.76, 7.76, 7.2, 7.2, 7.2, 5.72, 5.72, 5.72, 5.72, 5.72, 5.72, 5.72, 6.04, 6.04, 6.04, 6.34, 6.64, 6.64, 6.95, 7.23, 7.23, 7.51, 7.85, 8.08, 8.08, 8.08, 8.29, 8.65, 8.65, 8.65, 8.65, 8.29, 8.37, 8.37, 8.0, 8.0, 8.0, 8.43, 8.27, 8.27, 7.9, 7.9, 7.9, 8.15, 7.76, 7.76, 7.61, 7.61, 7.48, 6.95, 6.95, 7.2, 7.51, 7.69, 6.94, 5.57, 4.6, 4.11, 3.6, 3.6, 4.11, 4.11, 4.11, 4.3, 4.3, 3.87, 3.98, 3.53, 4.02, 3.98, 6.26, 5.36, 4.92, 5.73, 5.51, 5.51, 5.73, 6.2, 7.15, 8.05, 8.49, 9.79, 11.14, 11.51, 11.36, 12.04, 12.58, 12.85, 11.18, 10.28, 9.72, 9.58, 9.58, 9.97, 9.97, 8.63, 7.76, 7.82, 8.21, 8.21, 7.82, 7.82, 7.82, 5.72, 5.72, 5.44, 5.72, 5.72, 5.72, 5.72, 5.72, 6.04, 6.04, 6.34, 6.34, 6.64, 6.95, 6.95, 7.23, 7.51, 7.51, 8.08, 8.08, 8.08, 8.29, 8.29, 8.55, 8.55, 8.55, 8.55, 8.37, 8.0, 8.0, 8.0, 8.0, 8.27, 8.27, 8.27, 7.9, 7.9, 7.9, 7.76, 7.61, 7.76, 7.76, 7.61, 7.23, 7.08, 6.95, 6.8, 7.2, 7.51, 7.01, 6.3, 5.57, 4.6, 4.11, 3.6, 3.6, 4.11, 4.11, 4.11, 4.11, 3.87, 3.87, 3.39, 3.53, 4.02, 6.26, 5.81, 5.81, 6.26, 6.26, 6.17, 6.26, 6.71, 7.6, 8.05, 8.49, 9.39, 10.25, 10.6, 10.41, 11.36, 12.74, 12.86, 11.6, 10.73, 9.72, 9.33, 9.08, 9.36, 8.21, 7.82, 7.82, 8.21, 8.05, 8.05, 7.81, 7.81, 7.81, 5.44, 5.44, 5.44, 5.71, 5.71, 6.01, 6.01, 5.72, 6.04, 6.04, 6.34, 6.34, 6.64, 6.95, 6.95, 7.23, 7.23, 7.51, 7.51, 8.08, 8.08, 8.08, 8.55, 8.55, 8.55, 8.55, 8.37, 8.0, 8.0, 8.0, 8.0, 8.27, 8.27, 8.27, 7.9, 7.9, 7.9, 7.9, 7.61, 7.61, 7.61, 7.61, 7.61, 7.23, 7.48, 6.95, 6.56, 6.8, 6.8, 6.8, 6.51, 5.81, 5.31, 4.4, 3.88, 4.11, 4.11, 4.11, 4.11, 4.11, 4.11, 3.87, 3.87, 3.53, 3.98, 6.26, 5.81, 5.81, 6.26, 6.26, 6.71, 6.71, 7.15, 7.6, 7.6, 8.05, 8.49, 9.35, 9.68, 10.14, 11.05, 11.96, 12.85, 11.6, 10.7, 9.58, 9.08, 8.63, 8.06, 7.69, 8.18, 7.81, 8.21, 8.21, 7.81, 7.81, 7.81, 7.81, 5.44, 5.44, 5.71, 5.71, 5.71, 5.71, 6.01, 5.72, 6.04, 6.04, 6.34, 6.34, 6.64, 6.95, 6.95, 7.23, 7.23, 7.51, 7.51, 7.51, 7.73, 8.08, 8.37, 8.55, 8.55, 8.37, 8.0, 8.0, 8.0, 8.0, 7.9, 7.9, 7.9, 7.9, 7.9, 7.9, 7.9, 7.9, 7.35, 7.61, 7.61, 7.61, 7.61, 7.23, 7.07, 6.95, 6.95, 6.56, 6.8, 6.67, 6.28, 6.0, 5.6, 5.08, 4.27, 3.88, 3.88, 3.88, 4.11, 4.11, 4.11, 4.11, 3.87, 3.87, 3.87, 5.36, 4.92, 4.92, 5.36, 6.26, 6.64, 6.64, 6.71, 7.15, 7.15, 7.6, 8.0, 8.44, 8.77, 9.68, 10.25, 11.14, 11.95, 12.04, 10.7, 8.91, 7.69, 7.68, 7.33, 7.02, 6.7, 7.2, 7.2, 7.12, 7.12, 7.2, 7.2, 7.2, 5.44, 5.44, 5.71, 5.71, 5.71, 5.71, 6.01, 6.01, 6.04, 6.04, 6.34, 6.34, 6.64, 6.64, 6.95, 6.95, 7.23, 7.51, 7.51, 7.51, 7.73, 8.08, 8.37, 8.37, 8.37, 8.0, 8.0, 8.0, 7.9, 7.9, 7.9, 7.9, 7.9, 7.9, 7.9, 8.15, 7.9, 7.9, 7.35, 7.61, 7.61, 7.61, 7.61, 7.23, 7.07, 6.7, 6.95, 6.56, 6.56, 6.41, 6.28, 5.75, 5.75, 5.08, 4.55, 4.55, 4.17, 4.4, 4.4, 4.4, 4.11, 4.11, 4.3, 3.87, 4.3, 5.81, 4.92, 4.92, 5.81, 6.2, 6.45, 6.45, 6.16, 6.71, 6.71, 7.15, 7.54, 8.0, 8.45, 9.35, 10.25, 10.25, 11.18, 12.07, 11.18, 6.7, 5.69, 5.3, 4.95, 4.65, 4.29, 4.54, 4.57, 5.7, 6.17, 6.45, 6.45, 6.45, 5.44, 5.44, 5.71, 5.71, 5.71, 5.71, 6.01, 5.72, 6.04, 6.04, 6.34, 6.34, 6.34, 6.64, 6.95, 6.95, 6.95, 7.23, 7.51, 7.51, 7.51, 7.73, 8.0, 8.0, 8.0, 8.0, 8.27, 7.9, 7.9, 7.9, 7.9, 7.9, 7.9, 8.15, 8.15, 8.15, 8.15, 8.15, 7.35, 7.61, 7.61, 7.61, 7.23, 7.07, 7.07, 6.7, 6.95, 6.56, 6.41, 6.03, 5.86, 5.75, 5.75, 5.21, 4.65, 4.65, 4.55, 4.55, 4.55, 4.8, 4.4, 4.6, 4.19, 4.3, 4.34, 3.54, 5.81, 4.92, 5.36, 6.26, 6.26, 6.2, 5.6, 5.6, 6.64, 6.71, 7.15, 7.54, 8.0, 8.94, 9.83, 10.28, 10.73, 11.62, 9.11, 6.4, 3.35, 1.7, 1.84, 2.76, 2.68, 2.98, 3.82, 4.34, 5.26, 5.73, 5.73, 5.73, 5.44, 5.44, 5.71, 5.71, 5.71, 5.71, 6.01, 5.72, 6.04, 6.34, 6.34, 6.34, 6.34, 6.64, 6.95, 6.95, 6.95, 6.95, 7.51, 7.51, 7.51, 7.51, 8.0, 8.0, 8.0, 8.27, 7.9, 7.9, 7.9, 7.9, 7.9, 8.15, 8.15, 8.15, 8.15, 8.15, 8.15, 8.15, 7.76, 7.61, 7.61, 7.61, 7.23, 7.07, 6.7, 6.7, 6.15, 6.41, 6.41, 6.03, 5.86, 5.75, 5.49, 4.94, 4.37, 4.65, 4.65, 4.65, 5.08, 4.93, 4.55, 4.4, 4.6, 4.6, 4.34, 3.87, 6.17, 5.36, 5.36, 6.2, 6.71, 6.26, 5.73, 5.26, 5.94, 6.17, 6.71, 7.6, 8.05, 8.94, 9.39, 10.28, 10.73, 11.96, 9.58, 7.21, 3.35, 0.88, 0.88, 2.95, 2.98, 3.13, 3.2, 3.82, 4.24, 4.24, 4.24, 4.24, 5.44, 5.44, 5.71, 5.71, 5.71, 6.01, 5.72, 5.72, 6.04, 6.34, 6.34, 6.34, 6.34, 6.64, 6.95, 6.95, 6.95, 6.95, 7.25, 7.51, 7.51, 7.51, 7.44, 7.64, 7.9, 7.9, 7.9, 7.9, 7.9, 7.72, 7.61, 7.76, 7.76, 8.15, 8.15, 8.15, 8.15, 8.15, 8.15, 7.61, 7.61, 7.61, 7.23, 7.07, 6.7, 6.51, 6.15, 6.41, 6.41, 6.03, 5.86, 5.49, 5.29, 4.94, 4.71, 4.37, 4.37, 4.65, 5.21, 4.84, 5.08, 4.55, 4.8, 4.6, 4.19, 4.3, 3.98, 3.58, 6.26, 6.26, 6.71, 6.71, 6.2, 5.73, 5.36, 5.26, 6.26, 7.15, 8.05, 8.49, 8.94, 9.83, 12.07, 12.04, 10.02, 8.4, 6.08, 4.16, 3.33, 3.79, 3.39, 2.24, 2.68, 0.0, 0.0, 0.0, 0.0, 0.0, 5.72, 5.72, 5.44, 5.71, 5.71, 6.01, 5.72, 5.72, 6.04, 6.34, 6.34, 6.34, 6.34, 6.34, 6.95, 6.95, 6.95, 6.95, 6.92, 6.92, 7.17, 7.44, 7.44, 7.44, 7.72, 7.9, 7.9, 7.9, 7.72, 7.35, 7.61, 7.76, 7.76, 8.15, 8.15, 8.15, 8.15, 8.15, 8.15, 7.61, 7.61, 7.23, 7.07, 7.07, 6.7, 6.51, 6.15, 6.41, 6.41, 5.86, 5.86, 5.49, 5.29, 4.94, 4.71, 4.37, 4.37, 4.71, 4.94, 5.21, 4.84, 5.08, 4.69, 4.9, 4.6, 4.19, 3.87, 3.98, 6.26, 6.26, 6.71, 6.71, 6.64, 6.45, 6.17, 5.81, 6.26, 7.15, 8.05, 8.49, 8.94, 9.39, 12.07, 12.52, 10.69, 8.17, 7.2, 6.11, 4.01, 3.16, 1.58, 1.79, 0.0, -2.21, -2.53, -1.98, -1.98, -1.98, 5.72, 5.72, 5.72, 5.72, 5.72, 5.72, 5.72, 5.72, 6.04, 6.34, 6.34, 6.34, 6.34, 6.34, 6.34, 6.64, 6.64, 6.64, 6.92, 6.92, 6.92, 7.21, 7.44, 7.44, 7.72, 7.72, 7.72, 7.72, 7.72, 7.72, 7.35, 7.35, 7.9, 8.15, 8.15, 8.15, 8.15, 8.15, 7.76, 7.61, 7.61, 7.23, 7.07, 6.7, 6.7, 6.51, 6.15, 6.15, 6.41, 5.86, 5.86, 5.86, 5.29, 4.94, 4.71, 4.71, 4.71, 4.71, 4.71, 4.94, 5.21, 4.84, 5.08, 5.08, 4.9, 4.6, 4.11, 3.87, 3.98, 6.64, 6.71, 6.71, 6.71, 6.71, 6.26, 6.26, 6.71, 7.15, 8.05, 8.49, 8.49, 9.8, 11.14, 12.85, 10.73, 6.17, 1.98, 2.23, 1.13, 0.0, -1.4, -1.4, -0.99, -2.23, -3.48, -2.2, -2.2, -2.2, 5.72, 5.72, 5.72, 5.72, 5.72, 5.72, 5.72, 5.72, 5.72, 6.34, 6.34, 6.34, 6.34, 6.34, 6.34, 6.34, 6.64, 6.92, 6.92, 6.92, 6.92, 6.87, 6.87, 7.44, 7.72, 7.72, 7.72, 7.72, 7.72, 7.72, 7.72, 7.72, 7.9, 7.9, 7.9, 7.9, 7.9, 7.52, 7.61, 7.61, 7.23, 7.07, 6.7, 6.7, 6.7, 6.15, 6.15, 6.15, 5.59, 5.59, 5.86, 5.49, 5.29, 5.29, 4.43, 4.43, 4.43, 4.43, 4.43, 4.71, 4.94, 4.94, 4.84, 5.08, 5.08, 4.8, 4.11, 3.7, 4.11, 5.94, 6.2, 6.64, 6.26, 6.26, 6.71, 6.64, 6.45, 7.1, 7.6, 8.05, 8.9, 9.79, 10.7, 12.49, 11.59, 5.81, -2.8, -2.98, -1.98, -1.8, -2.0, -0.88, -0.88, -1.19, -2.2, -0.96, -0.96, -0.96, 5.72, 5.72, 5.72, 5.72, 5.72, 5.72, 5.72, 5.72, 5.72, 6.04, 6.34, 6.34, 6.34, 6.34, 6.34, 6.34, 6.34, 6.64, 6.92, 6.59, 6.59, 6.87, 6.87, 7.09, 7.44, 7.72, 7.72, 7.72, 7.72, 7.72, 7.72, 7.72, 7.72, 7.72, 7.9, 7.9, 7.72, 7.35, 7.61, 7.23, 7.07, 7.07, 6.7, 6.7, 6.51, 6.15, 6.15, 6.15, 5.59, 5.59, 5.59, 5.86, 5.01, 5.01, 4.74, 4.43, 4.43, 4.43, 4.74, 4.74, 4.43, 4.71, 4.71, 4.65, 4.93, 4.55, 4.4, 3.88, 4.27, 6.0, 6.2, 6.2, 6.26, 6.26, 6.71, 6.71, 7.08, 6.94, 7.54, 8.05, 8.94, 9.83, 10.73, 12.07, 12.96, 8.9, 0.0, -3.79, -2.76, -1.7, -0.82, 0.0, 0.0, 0.0, 0.0, 1.27, 1.27, 1.27, 5.72, 5.72, 5.72, 5.72, 5.72, 5.72, 5.72, 5.72, 5.72, 5.72, 6.04, 6.04, 6.34, 6.34, 6.34, 6.34, 6.34, 6.64, 6.32, 6.32, 6.59, 6.87, 6.87, 6.87, 7.44, 7.44, 7.44, 7.44, 7.44, 7.44, 7.44, 7.44, 7.72, 7.72, 7.72, 7.72, 7.35, 7.35, 7.61, 7.23, 7.07, 6.7, 6.7, 6.7, 6.41, 6.41, 6.15, 6.15, 5.59, 5.59, 5.59, 5.59, 5.59, 5.35, 5.01, 4.74, 4.45, 4.45, 4.45, 4.74, 4.43, 4.43, 4.71, 4.37, 4.65, 4.29, 4.55, 4.0, 4.0, 4.9, 5.26, 7.15, 6.71, 6.71, 6.71, 7.15, 7.15, 7.6, 8.0, 8.05, 8.94, 9.83, 10.73, 12.07, 13.41, 12.49, 7.53, 0.0, -2.47, -0.83, 0.0, 0.82, 2.68, 4.77, 5.81, 6.17, 6.17, 6.17, 5.72, 5.72, 5.72, 5.72, 5.72, 5.72, 5.72, 5.72, 5.72, 5.72, 5.72, 5.72, 6.04, 6.04, 6.04, 6.04, 6.32, 6.32, 6.32, 6.32, 6.32, 6.87, 6.87, 6.87, 7.44, 7.44, 7.44, 7.44, 7.44, 7.44, 7.44, 7.44, 7.44, 7.44, 7.72, 7.35, 7.35, 7.35, 7.23, 7.07, 7.07, 6.7, 6.7, 6.51, 6.15, 6.41, 6.15, 6.15, 5.59, 5.59, 5.59, 5.59, 5.59, 5.35, 5.06, 4.75, 4.45, 4.45, 4.45, 4.45, 4.43, 4.12, 4.71, 4.37, 4.65, 4.29, 4.07, 4.0, 4.0, 4.55, 5.57, 7.54, 7.15, 7.6, 6.71, 7.15, 7.6, 7.6, 8.0, 8.44, 8.94, 9.79, 10.25, 11.59, 13.41, 13.86, 11.96, 8.3, 4.29, 2.47, 3.47, 5.6, 6.71, 7.71, 7.98, 8.4, 8.4, 8.4, 5.72, 5.72, 5.72, 5.72, 5.72, 5.72, 5.72, 5.72, 5.72, 5.72, 5.72, 5.72, 5.72, 5.72, 6.04, 6.04, 6.32, 6.32, 6.32, 6.32, 6.32, 6.59, 6.59, 6.87, 7.21, 7.44, 7.44, 7.44, 7.44, 7.44, 7.44, 7.44, 7.44, 7.09, 7.35, 7.35, 7.35, 6.79, 7.07, 7.07, 6.7, 6.7, 6.51, 6.51, 6.15, 6.15, 6.15, 6.15, 5.93, 5.59, 5.93, 5.93, 5.32, 5.06, 5.06, 5.06, 4.75, 4.45, 4.45, 4.45, 4.12, 4.12, 3.83, 4.11, 4.37, 4.65, 4.07, 3.73, 3.73, 4.55, 5.08, 5.57, 5.36, 8.05, 6.71, 7.15, 7.6, 8.0, 8.0, 8.44, 8.9, 9.79, 10.25, 11.14, 12.52, 13.86, 13.86, 12.41, 10.89, 9.49, 9.35, 9.79, 9.58, 9.6, 9.08, 9.24, 9.24, 9.24, 5.72, 5.72, 5.72, 5.72, 5.72, 5.72, 5.72, 5.72, 5.72, 5.72, 5.72, 5.72, 5.72, 5.72, 6.04, 6.04, 6.32, 6.32, 6.32, 6.32, 6.32, 6.59, 6.59, 6.87, 7.21, 7.44, 7.44, 7.44, 7.44, 7.44, 7.44, 7.44, 7.44, 7.09, 7.35, 7.35, 7.35, 6.79, 7.07, 7.07, 6.7, 6.7, 6.51, 6.51, 6.15, 6.15, 6.15, 6.15, 5.93, 5.59, 5.93, 5.93, 5.32, 5.06, 5.06, 5.06, 4.75, 4.45, 4.45, 4.45, 4.12, 4.12, 3.83, 4.11, 4.37, 4.65, 4.07, 3.73, 3.73, 4.55, 5.08, 5.57, 5.36, 8.05, 6.71, 7.15, 7.54, 8.0, 8.0, 8.44, 8.9, 9.79, 10.25, 11.14, 12.04, 13.41, 14.75, 13.86, 12.52, 11.62, 11.15, 11.05, 10.68, 10.18, 10.18, 9.66, 9.66, 9.66]}, {"header": {"dx": 0.06612293990616946, "dy": 0.0552356325346848, "nx": 98, "ny": 59, "la1": 35.046912555036876, "la2": 31.78801023549047, "lo1": -121.43107172385933, "lo2": -114.95102361305473, "refTime": "2026040619", "parameterCategory": 1, "parameterNumber": 3}, "data": [-6.92, -6.92, -6.64, -6.34, -6.34, -6.34, -6.34, -6.04, -5.72, -5.36, -4.45, -3.37, -3.49, -2.69, -0.84, -0.94, -1.01, -0.95, -1.4, -1.73, -3.72, -5.21, -5.26, -5.36, -4.92, -4.92, -5.26, -4.98, -5.4, -5.4, -4.98, -4.98, -4.82, -4.82, -4.92, -5.26, -4.98, -4.98, -4.6, -4.11, -4.43, -3.97, -5.31, -6.3, -6.5, -6.57, -7.51, -7.24, -6.57, -5.9, -4.34, -2.69, -1.84, -0.95, 0.0, 0.96, 1.98, 1.84, 1.96, 0.89, 0.89, 0.95, 0.89, 0.89, 0.95, 0.89, 0.94, 0.89, 0.85, 0.89, 0.0, 0.0, 0.0, 0.0, 0.0, 0.0, 0.0, -0.77, -0.89, -1.84, -2.67, -2.82, -3.22, -3.48, -2.21, 0.0, 0.0, 0.0, 0.0, -0.95, -1.84, -1.98, 0.0, 1.08, 2.48, 3.16, 3.48, 3.82, -6.59, -6.92, -6.64, -6.34, -6.34, -6.34, -6.34, -6.04, -5.72, -5.44, -4.83, -5.21, -4.34, -3.15, -2.69, -1.32, -1.01, -1.58, -2.82, -2.8, -3.2, -5.21, -6.71, -6.71, -5.36, -5.36, -4.92, -5.26, -5.51, -5.51, -5.51, -5.73, -5.73, -5.81, -5.81, -5.73, -6.17, -5.94, -5.6, -5.21, -5.06, -6.63, -6.95, -7.59, -8.53, -8.42, -7.36, -6.7, -6.04, -5.21, -4.34, -3.45, -1.75, 0.0, 0.78, 1.84, 1.84, 1.73, 1.84, 0.94, 0.94, 0.89, 0.95, 0.95, 0.0, 0.0, 0.0, 0.0, 0.0, 0.89, 0.81, 0.0, 0.0, 0.0, 0.0, 0.0, -0.85, -0.77, -0.89, -1.84, -2.67, -2.82, -3.22, -3.48, -2.21, 0.0, 0.0, 0.0, 0.0, -0.95, -1.84, -1.98, 0.0, 1.08, 2.48, 3.16, 3.48, 3.82, -6.87, -6.59, -6.59, -6.64, -6.34, -6.34, -6.34, -6.32, -6.01, -5.71, -5.1, -4.47, -4.56, -4.12, -3.09, -2.67, -2.83, -2.83, -2.99, -2.99, -2.64, -3.2, -5.94, -6.71, -6.71, -5.36, -5.36, -5.26, -5.29, -6.17, -6.2, -6.2, -6.26, -7.15, -6.17, -7.45, -6.64, -6.45, -6.57, -6.6, -6.44, -7.02, -8.31, -8.93, -9.26, -8.22, -6.83, -5.36, -5.24, -4.68, -3.77, -2.67, -0.89, 0.0, 1.52, 1.84, 1.73, 1.84, 0.84, 0.89, 0.84, 0.0, 0.0, 0.0, 0.0, 0.0, 0.0, 0.0, 0.0, 0.0, 0.0, 0.0, 0.0, -0.81, -0.81, -1.75, -1.68, -1.68, -2.35, -3.32, -3.6, -4.42, -4.29, -3.79, -2.98, -1.9, -0.99, -0.96, -1.84, -2.67, -3.4, -2.64, -0.88, 0.0, 1.08, 2.2, 2.2, 3.82, -6.87, -6.87, -6.59, -6.92, -6.64, -6.64, -6.64, -6.32, -6.32, -5.71, -5.71, -5.1, -5.21, -4.12, -4.5, -4.5, -4.12, -4.0, -3.45, -2.83, -2.67, -2.99, -3.2, -4.98, -5.81, -6.94, -5.73, -5.36, -5.81, -6.26, -6.71, -6.71, -7.15, -7.6, -7.6, -7.45, -7.89, -8.38, -8.06, -8.4, -8.42, -9.0, -8.64, -8.31, -7.59, -6.04, -4.74, -3.4, -2.82, -2.64, -1.72, -0.89, 0.0, 0.89, 1.84, 1.96, 1.73, 0.84, 0.89, 0.89, 0.0, 0.0, 0.0, 0.0, 0.89, 0.94, 0.89, 0.8, 0.77, 0.0, 0.0, 0.0, -1.68, -2.17, -2.83, -3.36, -3.36, -3.36, -3.49, -4.12, -4.56, -4.42, -4.74, -4.6, -3.9, -2.98, -2.0, -2.8, -3.6, -4.34, -4.26, -2.64, -1.7, 0.0, 0.0, 1.05, 1.05, 2.53, -6.87, -6.87, -6.92, -6.92, -6.92, -6.64, -6.32, -6.32, -6.32, -6.01, -6.01, -6.01, -5.21, -4.56, -4.34, -4.96, -4.71, -4.34, -4.34, -3.8, -4.0, -4.14, -4.83, -6.08, -6.26, -7.15, -7.15, -7.15, -7.15, -6.26, -6.64, -7.1, -7.1, -7.1, -7.89, -7.89, -8.38, -8.91, -9.24, -9.9, -9.42, -7.68, -6.53, -6.04, -5.21, -4.34, -3.63, -1.84, -0.89, 0.0, 0.0, 0.0, 0.95, 1.84, 1.73, 0.94, 0.84, 0.89, 0.89, 0.0, 0.0, 0.0, 0.89, 0.89, 0.94, 0.84, 0.89, 0.94, 0.89, 0.0, 0.0, -0.89, -1.6, -2.57, -4.34, -5.13, -5.06, -4.83, -4.34, -3.91, -4.95, -5.37, -5.58, -5.51, -4.82, -4.4, -4.43, -4.42, -5.36, -5.36, -4.42, -2.8, -1.99, -0.96, 0.0, 0.0, 0.0, 1.6, -7.21, -7.21, -7.21, -6.92, -6.92, -6.59, -6.32, -6.32, -6.62, -6.28, -5.95, -5.69, -5.76, -4.56, -4.56, -4.34, -4.96, -5.63, -5.76, -5.76, -5.36, -4.68, -4.83, -5.72, -7.45, -7.6, -7.6, -7.6, -7.6, -7.6, -6.64, -6.94, -6.99, -6.21, -5.2, -5.75, -6.45, -6.7, -9.06, -10.41, -9.24, -8.18, -6.32, -5.21, -5.21, -4.56, -3.32, -2.57, -0.89, 0.0, 0.0, 0.89, 0.89, 0.84, 0.89, 0.89, 0.0, 0.0, 0.0, 0.0, 0.0, 0.94, 0.94, 0.94, 0.84, 0.89, 0.89, 0.0, 0.0, 0.0, 0.0, 0.0, -0.89, -1.84, -3.77, -6.01, -6.73, -5.89, -5.24, -4.42, -4.58, -5.49, -5.58, -5.94, -6.02, -6.57, -6.82, -6.01, -6.01, -5.37, -3.72, -2.76, -2.0, -2.0, -1.05, 0.0, 0.0, 0.0, -7.21, -7.21, -7.21, -6.92, -6.59, -6.59, -6.32, -6.62, -6.62, -6.28, -6.28, -6.23, -6.04, -5.21, -4.6, -4.2, -5.06, -5.7, -6.04, -6.14, -5.38, -4.56, -2.83, -0.95, -1.63, -4.11, -5.36, -5.36, -6.26, -6.71, -8.05, -6.88, -6.18, -5.37, -5.15, -4.6, -4.4, -5.81, -7.15, -8.05, -8.38, -6.8, -5.37, -4.14, -3.15, -2.67, -1.84, -1.75, -0.89, 0.0, 0.0, 0.0, 0.85, 0.85, 0.0, 0.0, 0.0, 0.0, 0.0, 0.0, 0.0, 0.94, 0.84, 0.84, 0.84, 0.89, 0.89, 0.0, 0.0, 0.0, 0.0, 0.0, 0.0, -0.89, -1.98, -3.91, -6.21, -6.6, -5.49, -4.74, -4.89, -5.21, -5.6, -6.45, -7.85, -8.4, -8.05, -6.79, -4.74, -2.95, -1.98, 0.0, 0.0, -1.08, -1.99, 0.0, 0.0, 0.0, -6.87, -6.87, -6.87, -6.59, -6.59, -6.59, -6.87, -6.87, -6.87, -6.87, -6.79, -7.07, -7.4, -6.77, -6.24, -5.38, -5.52, -5.76, -5.28, -6.04, -5.06, -3.21, -0.85, 0.0, 0.85, 0.0, 1.52, 2.6, 0.0, -6.26, -8.05, -8.38, -8.0, -6.63, -4.43, -3.16, 0.0, 2.53, -0.0, -2.4, 0.0, 0.0, 2.2, 1.84, 1.52, 1.73, 0.89, 0.0, 0.0, 0.0, 0.0, 0.0, 0.85, 0.0, 0.0, 0.0, 0.0, 0.0, 0.0, 0.0, 0.0, 0.0, 0.0, 0.94, 0.89, 0.89, 0.94, 0.0, 0.0, 0.0, 0.0, 0.0, 0.0, 0.0, 0.0, 0.0, -3.35, -4.98, -4.98, -4.98, -4.6, -4.8, -5.2, -6.28, -7.89, -9.08, -8.3, -6.45, -3.63, 0.0, 1.58, 1.2, 0.0, -1.08, -2.2, -1.19, 0.0, 0.0, -6.87, -6.87, -6.87, -6.59, -6.59, -6.59, -6.87, -6.87, -6.87, -6.87, -7.35, -7.9, -10.24, -9.16, -8.47, -8.02, -7.9, -6.98, -6.42, -6.48, -5.46, -3.7, -1.94, -0.99, 0.0, 0.0, 2.54, 4.14, 2.82, -1.98, -5.51, -4.4, -2.2, 0.0, 0.0, 0.0, 5.36, 6.4, 5.94, 5.51, 6.71, 6.71, 6.07, 6.0, 4.74, 3.91, 2.82, 2.99, 1.84, 1.75, 1.2, 0.84, 0.0, 0.0, 0.0, 0.0, 0.0, -0.85, -0.85, -0.85, -0.89, 0.0, 0.0, 0.0, 0.95, 0.89, 0.0, 0.0, 0.0, -0.85, -0.85, -0.73, -0.85, -0.76, 0.0, 0.0, 0.0, -2.23, -3.72, -4.15, -4.98, -5.09, -5.59, -6.28, -7.47, -8.24, -8.3, -6.32, -3.11, 0.0, 1.58, 1.26, 0.0, -2.2, -3.79, -3.48, -2.21, -0.0, -6.87, -6.87, -6.87, -6.59, -6.59, -6.59, -6.59, -6.87, -7.21, -7.44, -7.8, -8.65, -7.81, -7.51, -9.16, -9.81, -9.81, -9.81, -9.46, -8.93, -8.18, -7.33, -5.69, -3.0, 0.0, 1.73, 3.4, 4.56, 2.82, 0.0, 3.16, 6.26, 6.71, 6.4, 6.08, 4.74, 5.81, 5.73, 6.71, 6.94, 5.94, 5.51, 4.98, 4.4, 4.29, 3.63, 2.8, 2.82, 1.75, 1.84, 1.84, 0.0, 0.0, 0.0, -0.85, -1.75, -1.75, -2.57, -2.57, -2.69, -1.84, -0.95, 0.0, 1.05, 1.03, 0.94, 0.0, 0.0, -0.77, -1.75, -1.75, -2.23, -2.23, -1.58, -0.79, 0.0, 0.0, 0.0, -0.88, -2.84, -4.38, -5.36, -5.59, -6.28, -6.94, -7.28, -7.33, -6.24, -4.37, -2.29, -1.2, 0.0, 0.0, -2.2, -3.22, -2.84, 0.0, 1.98, -6.87, -6.87, -6.59, -6.59, -6.59, -6.59, -6.92, -6.92, -6.92, -7.51, -7.73, -8.38, -8.22, -6.98, -7.64, -7.59, -8.47, -4.59, -3.79, -3.49, -6.73, -6.18, -3.22, 0.0, 4.66, 4.84, 4.84, 4.84, 3.22, 3.47, 5.94, 6.26, 6.17, 5.4, 4.98, 5.58, 6.0, 7.01, 5.6, 5.58, 5.95, 4.89, 4.29, 5.09, 4.46, 3.22, 2.8, 1.84, 0.94, 0.0, 0.0, 0.0, -0.89, -1.84, -3.63, -3.49, -4.4, -4.56, -4.34, -3.4, 0.0, 1.19, 3.22, 2.99, 1.84, 0.0, -0.89, -1.75, -2.7, -3.49, -4.2, -4.0, -3.8, -3.27, -2.26, -1.63, -0.78, -0.89, -0.96, -1.05, -2.98, -4.47, -5.36, -6.07, -6.0, -6.08, -6.68, -6.88, -6.51, -4.83, -1.98, 0.0, 1.4, 0.0, -1.05, 0.0, 3.13, 3.2, -6.59, -6.59, -6.59, -6.59, -6.92, -6.92, -6.92, -6.92, -7.17, -7.51, -7.85, -8.15, -8.22, -7.6, -5.83, -4.54, -2.69, -2.26, -1.63, -1.07, -0.54, 0.0, 0.57, 2.54, 4.43, 4.84, 4.66, 1.7, 3.72, 3.79, 5.21, 5.37, 5.37, 4.6, 4.6, 4.6, 4.84, 4.89, 4.74, 4.58, 4.58, 4.43, 4.29, 5.09, 5.09, 3.93, 3.47, 1.63, 0.0, 0.0, -0.95, -0.94, -1.84, -1.75, -2.83, -3.45, -4.5, -6.01, -5.49, 0.0, 5.26, 6.16, 5.58, 3.72, 1.96, 0.0, -0.85, -2.57, -5.21, -6.04, -6.24, -5.49, -4.46, -4.68, -3.55, -2.64, -2.8, -1.98, -1.6, -1.72, -1.99, -4.0, -5.81, -6.2, -5.86, -6.44, -7.68, -8.22, -7.52, -5.0, -0.99, 1.58, 2.21, 0.0, 0.0, 0.0, 1.9, 2.68, -6.92, -6.59, -6.59, -6.92, -6.92, -6.92, -6.92, -6.92, -7.51, -7.23, -7.55, -8.15, -8.22, -8.24, -7.16, -5.28, -3.56, -1.72, -1.11, 0.0, 0.0, 1.16, 1.66, 1.63, 1.71, 1.7, 0.99, 1.24, 0.99, 0.99, 2.2, 4.43, 4.89, 4.54, 4.98, 4.98, 4.19, 3.63, 3.47, 3.72, 3.72, 4.11, 4.4, 4.82, 5.81, 5.51, 4.84, 3.22, 1.52, 0.0, 0.0, 0.0, 0.0, 0.88, 2.12, 1.63, 0.0, -5.95, -4.4, 4.98, 8.05, 7.85, 6.6, 4.74, 3.0, 1.73, 0.0, -0.89, -4.26, -7.15, -7.81, -7.58, -6.11, -5.37, -4.58, -3.72, -3.91, -3.91, -3.11, -3.33, -2.47, -2.99, -4.57, -6.17, -6.94, -7.82, -8.73, -7.94, -5.94, -3.9, -1.8, 0.0, 0.0, -0.88, -0.89, -0.96, 0.0, 1.9, -6.92, -6.92, -6.92, -6.92, -6.92, -6.92, -6.92, -7.25, -7.23, -7.23, -7.55, -7.86, -7.9, -7.95, -7.59, -6.43, -5.25, -3.39, -2.32, -1.69, -0.57, 0.0, 0.0, 0.56, 0.56, 0.55, 0.53, 0.57, 0.0, 0.0, 0.61, 1.99, 4.02, 4.11, 4.54, 4.54, 3.35, 2.99, 1.98, 1.98, 2.99, 3.93, 5.09, 5.36, 5.36, 5.36, 4.34, 4.11, 4.43, 3.47, 3.0, 1.98, 4.84, 6.51, 6.94, 5.2, 4.56, 0.0, -0.0, 6.21, 8.45, 8.82, 8.06, 7.47, 5.58, 4.19, 2.47, 1.72, 0.0, -5.4, -7.54, -7.54, -6.57, -5.58, -5.58, -4.74, -4.74, -4.74, -5.15, -4.74, -4.58, -3.72, -4.11, -4.84, -6.79, -7.81, -8.42, -7.2, -5.15, -3.72, -2.98, -2.76, -2.4, -2.8, -2.35, -0.95, 0.0, 0.0, -6.92, -6.92, -6.92, -6.92, -6.92, -6.92, -6.92, -6.95, -6.95, -7.55, -7.55, -7.86, -7.9, -8.24, -7.6, -7.16, -6.43, -4.74, -4.03, -2.87, -1.69, -1.13, -0.57, 0.0, 0.0, 0.0, 0.56, 0.0, 0.0, 0.0, 0.0, 0.0, 1.32, 3.0, 4.74, 5.36, 5.06, 3.0, 1.4, 0.96, 0.96, 4.0, 4.47, 4.47, 4.92, 4.92, 5.36, 5.09, 5.09, 4.84, 5.21, 5.21, 6.51, 6.71, 6.51, 5.58, 3.72, 1.84, 2.95, 8.05, 7.54, 7.15, 7.45, 7.45, 7.06, 6.08, 5.06, 4.56, 3.72, -3.48, -5.94, -5.94, -4.92, -4.34, -4.4, -4.98, -5.6, -6.0, -5.58, -5.58, -5.49, -4.74, -4.01, -4.74, -5.37, -7.15, -6.8, -6.2, -5.09, -4.89, -4.58, -4.74, -4.74, -3.9, -3.55, -0.89, 0.0, 0.0, -6.92, -6.92, -6.92, -6.92, -6.92, -6.92, -6.92, -6.95, -6.95, -7.55, -7.27, -7.59, -7.9, -7.93, -7.61, -7.19, -6.46, -5.96, -4.74, -3.53, -2.87, -1.69, -1.14, 0.0, 0.0, 0.58, 0.56, 0.0, 0.0, 0.0, 0.0, -0.57, 0.0, 1.25, 3.0, 4.43, 4.58, 2.64, 0.0, 0.0, 1.13, 3.39, 4.02, 4.47, 4.47, 4.92, 4.92, 4.92, 4.92, 5.09, 5.09, 5.94, 5.6, 5.21, 5.21, 4.43, 3.72, 4.74, 6.08, 7.06, 5.73, 5.64, 5.51, 5.6, 6.4, 5.72, 4.43, 4.14, 1.49, -3.48, -2.76, -0.88, -0.0, 1.27, 2.21, 0.0, -3.58, -5.36, -5.29, -5.94, -5.6, -5.21, -5.06, -5.37, -4.58, -2.0, -4.4, -5.36, -6.26, -6.16, -6.18, -6.08, -5.06, -4.56, -3.79, -3.0, -1.7, -1.7, -6.92, -6.92, -6.92, -6.92, -6.92, -6.92, -6.64, -6.95, -6.95, -7.27, -7.27, -7.59, -7.6, -7.32, -7.33, -7.22, -6.5, -5.77, -5.28, -4.07, -3.41, -2.32, -1.19, 0.0, 0.56, 0.59, 0.56, 0.0, 0.0, -0.56, -0.54, -1.09, -1.1, 0.0, 2.6, 4.01, 4.74, 3.0, 1.7, 2.0, 4.66, 4.34, 5.36, 4.02, 4.92, 4.92, 4.92, 4.92, 4.92, 4.92, 4.66, 5.09, 4.84, 4.84, 4.43, 2.8, 4.02, 4.74, 5.36, 6.0, 4.84, 3.79, 3.48, 3.79, 3.47, 2.99, 4.56, 2.82, 0.0, -4.47, -0.0, 1.72, 3.91, 5.51, 6.26, 5.94, 3.82, -3.13, -4.92, -5.36, -5.7, -5.81, -5.49, -5.06, -4.43, -2.53, 0.0, -5.73, -6.45, -6.6, -6.64, -7.03, -6.7, -6.06, -5.24, -3.9, -3.22, -3.22, -6.92, -6.92, -6.92, -6.92, -6.92, -6.92, -6.64, -6.95, -6.95, -6.97, -7.27, -7.59, -7.3, -7.6, -7.32, -6.7, -6.94, -6.25, -5.11, -4.1, -2.87, -2.87, -2.34, -0.58, 0.0, 0.0, -0.57, -1.15, -1.65, -2.19, -2.21, -2.23, -1.73, -0.57, 0.54, 2.8, 3.22, 4.11, 4.46, 5.51, 6.26, 6.71, 6.26, 5.81, 5.36, 5.36, 4.92, 4.92, 4.47, 4.47, 4.4, 4.4, 3.79, 3.22, 3.22, 3.47, 3.47, 4.43, 3.47, 3.22, 3.22, 2.98, 2.2, 1.55, 1.7, 0.96, 0.96, 1.49, 0.0, 2.4, 4.43, 4.4, 5.26, 6.0, 6.18, 6.01, 5.24, 1.19, -4.02, -5.36, -4.92, -4.98, -5.58, -5.2, -4.77, -4.0, -4.29, -3.93, -5.6, -6.57, -7.12, -8.06, -7.6, -6.7, -6.11, -5.49, -4.11, -4.11, -6.92, -6.92, -6.92, -6.92, -6.92, -6.92, -6.64, -6.95, -6.95, -6.97, -6.97, -7.59, -7.3, -7.3, -7.6, -8.18, -6.96, -6.29, -5.2, -3.99, -3.53, -4.03, -3.96, -3.23, -2.44, -2.45, -2.75, -4.07, -4.07, -2.8, -3.45, -3.0, -2.8, -1.67, -1.05, 0.0, 0.0, 0.0, 2.0, 4.46, 4.57, 5.26, 5.51, 5.64, 5.6, 4.84, 4.66, 4.47, 4.92, 4.92, 4.92, 5.09, 4.46, 4.84, 4.43, 3.47, 3.47, 3.47, 3.47, 3.22, 1.7, 1.7, 1.7, 0.0, 0.0, 0.0, 0.0, 0.0, 0.84, 2.97, 4.6, 4.12, 4.25, 4.3, 3.29, 3.25, 2.59, 1.67, 0.0, -4.47, -5.7, -5.37, -5.94, -5.75, -6.26, -5.94, -5.6, -4.46, -4.89, -5.21, -6.57, -8.06, -8.3, -7.6, -6.45, -5.49, -5.21, -5.21, -6.92, -6.92, -6.92, -6.92, -6.92, -6.92, -6.64, -6.95, -6.95, -6.67, -6.97, -6.97, -6.98, -7.3, -7.32, -6.97, -6.71, -6.34, -6.7, -5.8, -6.6, -6.22, -6.27, -7.25, -7.12, -6.0, -5.1, -2.58, -2.23, -1.95, -2.23, -2.86, -2.86, -2.2, -1.73, -1.19, -0.55, -0.63, 0.0, 0.57, 1.27, 1.8, 2.23, 2.48, 2.86, 3.0, 3.48, 4.47, 4.92, 4.92, 5.36, 5.09, 5.51, 5.21, 3.79, 3.63, 4.29, 2.4, 1.99, 1.41, 0.0, 0.0, 0.0, 0.0, 1.13, 1.27, 0.96, 0.89, 1.84, 2.57, 3.25, 3.23, 3.28, 1.54, 0.0, 0.0, -0.83, -0.82, -2.16, -4.77, -5.36, -4.47, -4.24, -5.26, -6.26, -5.81, -5.09, -4.57, -4.19, -4.19, -4.89, -6.57, -7.85, -8.06, -6.64, -5.49, -4.89, -4.89, -6.92, -6.92, -6.92, -6.92, -6.92, -6.92, -6.64, -6.95, -6.95, -6.67, -6.97, -6.69, -6.98, -6.98, -7.32, -7.33, -6.71, -6.34, -6.7, -8.56, -7.93, -6.34, -6.7, -6.98, -6.33, -4.42, -2.14, -1.13, -0.43, 0.0, -0.4, -1.26, -2.21, -2.23, -2.22, -1.76, -1.23, -1.08, -1.23, -0.57, 0.0, 0.59, 1.6, 2.23, 2.22, 3.0, 3.48, 4.47, 4.92, 5.36, 5.36, 5.81, 5.51, 5.21, 4.74, 3.91, 3.72, 2.47, 0.0, 0.0, 0.0, 0.0, 0.0, 0.0, 1.4, 2.84, 2.0, 2.16, 2.64, 3.6, 3.65, 2.44, 0.79, -0.79, -2.45, -3.32, -4.32, -3.32, -2.49, -1.84, -1.27, -0.0, -1.19, -2.68, -4.98, -5.36, -4.92, -4.38, -4.15, -3.84, -4.11, -4.65, -6.17, -6.65, -6.28, -5.21, -4.19, -4.19, -6.92, -6.92, -6.92, -6.92, -6.92, -6.92, -6.64, -6.95, -6.95, -6.67, -6.97, -6.97, -6.98, -6.98, -6.98, -7.26, -6.97, -6.97, -7.6, -7.57, -6.29, -4.42, -3.83, -5.1, -5.72, -4.4, -2.3, -1.16, 0.0, 0.0, 0.0, 0.0, -0.57, -1.88, -1.8, -1.76, -1.57, -1.57, -1.23, -0.57, 0.0, 0.51, 1.16, 1.84, 2.48, 2.23, 3.48, 4.47, 5.51, 5.81, 5.81, 5.81, 5.64, 5.21, 4.43, 4.74, 3.97, 2.99, 0.0, -1.7, -2.48, -1.27, 0.0, 0.0, 1.9, 2.53, 2.23, 2.95, 2.76, 3.2, 3.15, 2.58, 0.0, 0.0, -1.83, -4.56, -6.05, -5.77, -4.32, -2.25, 0.0, 1.99, 2.21, -2.48, -4.4, -4.82, -4.92, -4.82, -4.15, -4.22, -3.07, -2.0, -2.98, -4.38, -5.09, -4.6, -4.29, -4.29, -6.92, -6.92, -6.92, -6.92, -6.92, -6.92, -6.92, -6.64, -6.95, -6.67, -6.97, -6.97, -6.98, -6.98, -6.98, -6.98, -6.97, -7.24, -7.22, -6.92, -5.6, -4.05, -2.8, -3.56, -4.03, -4.44, -3.49, -2.28, -1.12, -0.56, 0.0, 0.0, 0.0, -0.65, -1.6, -2.22, -2.2, -1.73, -1.08, -0.57, 0.0, 0.0, 1.16, 1.61, 2.23, 2.84, 4.47, 5.09, 6.07, 6.07, 6.26, 5.81, 6.07, 5.6, 5.6, 4.74, 4.29, 4.42, 0.0, -3.16, -4.4, -2.84, 0.0, 2.24, 2.68, 2.8, 2.53, 2.84, 2.0, 1.83, 1.63, 0.0, 4.74, 6.0, 4.47, -0.99, -4.36, -5.86, -5.95, -4.23, -2.25, 0.0, 0.95, -2.24, -3.35, -4.34, -4.47, -4.47, -4.34, -4.77, -4.22, -2.41, -0.99, -1.58, -2.4, -1.98, -1.8, -1.8, -6.92, -6.92, -6.92, -6.92, -6.92, -6.92, -6.92, -6.64, -6.95, -6.67, -6.67, -6.97, -6.69, -6.98, -6.98, -6.98, -6.97, -6.96, -6.96, -6.94, -5.83, -5.14, -4.02, -3.39, -3.49, -3.8, -4.0, -3.49, -2.8, -2.19, -1.61, -1.14, -0.57, -0.59, -1.13, -1.76, -2.2, -1.73, -1.73, -1.11, -0.59, 0.0, 0.53, 1.2, 2.53, 2.91, 5.09, 5.6, 6.07, 6.07, 6.26, 5.81, 6.07, 6.07, 6.0, 5.36, 4.89, 4.74, 3.0, -3.48, -4.47, -3.13, 0.0, 2.8, 3.58, 3.39, 3.39, 2.0, 0.98, 0.0, 0.0, 3.48, 4.29, 3.93, 4.47, 2.0, -2.98, -5.93, -6.32, -5.13, -4.6, -2.82, -0.72, 0.0, 0.0, 0.0, 0.0, 0.0, 0.0, -2.68, -4.92, -3.39, -1.58, 1.0, 0.0, 0.0, -0.79, -0.79, -6.92, -6.92, -6.92, -6.92, -6.92, -6.92, -6.92, -6.64, -6.95, -6.67, -6.67, -6.97, -6.69, -6.98, -6.7, -6.98, -6.97, -6.97, -6.96, -6.94, -6.53, -5.83, -5.14, -4.48, -3.53, -3.45, -3.52, -3.35, -3.52, -2.83, -2.86, -2.23, -1.65, -1.7, -1.19, -1.57, -1.73, -1.73, -1.73, -1.76, -0.59, 0.0, 0.0, 1.0, 2.23, 2.68, 2.4, 2.4, 2.4, 2.68, 2.68, 5.64, 6.26, 6.51, 6.0, 6.0, 5.6, 4.54, 4.74, 2.2, -3.58, -1.9, 1.6, 3.72, 4.47, 4.02, 3.35, 2.23, 0.0, -0.96, -0.95, 0.0, 0.0, -0.0, -2.68, -1.08, -2.68, -3.93, -5.36, -5.37, -5.13, -3.78, -2.89, -0.74, 0.94, 2.99, 3.48, 3.93, 4.77, 3.13, -0.0, -2.8, -1.79, 0.0, 0.0, 0.0, -1.55, -1.55, -7.21, -7.21, -7.21, -6.92, -6.92, -6.92, -6.92, -6.64, -6.95, -6.95, -6.67, -6.97, -6.69, -6.98, -6.7, -6.98, -6.71, -6.97, -6.96, -6.7, -6.29, -6.53, -5.83, -5.14, -4.68, -4.05, -3.61, -3.32, -3.35, -3.35, -3.35, -2.86, -2.73, -2.26, -2.32, -1.7, -1.7, -1.73, -2.2, -1.76, -1.13, -0.61, 0.0, 0.71, 1.26, 1.79, 1.7, 1.26, 1.26, 1.2, 1.34, 2.17, 5.81, 6.71, 7.01, 6.64, 5.6, 5.2, 5.6, 5.06, 1.84, 0.0, 2.53, 3.93, 4.34, 4.34, 3.72, 2.48, -0.98, -1.83, -1.84, -1.49, 0.0, -3.39, -5.4, -5.6, -4.22, -3.6, -4.29, -4.89, -4.29, -2.9, -1.58, 0.0, 0.8, 0.84, 0.89, 2.99, 3.79, 4.0, 2.68, -1.2, -1.79, -2.0, -1.6, -2.4, -2.4, -2.4, -7.21, -7.21, -7.21, -6.92, -6.92, -6.92, -6.92, -6.92, -6.64, -6.95, -6.67, -6.97, -6.69, -6.98, -6.7, -6.98, -6.71, -6.97, -6.96, -6.96, -6.29, -6.29, -5.86, -5.62, -5.17, -4.68, -4.05, -4.12, -3.49, -3.35, -3.35, -3.56, -3.56, -3.37, -3.37, -3.4, -2.77, -2.8, -2.36, -2.2, -1.58, -1.16, -0.53, 0.0, 0.0, 0.6, 0.45, 0.63, 0.63, 0.89, 0.89, 1.34, 1.79, 3.07, 5.73, 6.02, 6.51, 6.07, 5.37, 4.74, 2.82, 2.2, 4.92, 4.98, 5.36, 4.34, 3.72, 1.08, 0.0, -2.0, -2.99, -1.98, -0.96, -2.16, -3.91, -5.6, -5.26, -3.47, -3.72, -3.72, -2.8, 1.58, 1.74, 0.88, 0.0, -0.74, 0.0, 0.88, 1.83, 2.0, 1.6, 0.0, -2.24, -3.9, -3.84, -3.72, -4.01, -4.01, -6.87, -6.87, -6.87, -6.87, -6.92, -6.92, -6.92, -6.92, -6.64, -6.95, -6.67, -6.97, -6.69, -6.69, -6.7, -6.7, -6.71, -6.97, -6.7, -6.56, -6.56, -6.29, -6.29, -5.86, -5.4, -5.17, -4.72, -4.54, -4.57, -3.94, -3.97, -4.0, -4.03, -4.03, -4.03, -3.81, -3.4, -3.42, -2.8, -2.82, -2.44, -1.13, -0.51, -1.13, -1.61, -1.9, -1.2, 0.0, -0.0, 0.0, 0.0, 0.0, 0.89, 1.79, 3.13, 5.73, 6.58, 6.58, 5.58, 5.06, 3.72, 3.79, 5.36, 5.81, 4.92, 5.09, 1.27, 0.0, 0.0, -0.96, -1.99, -2.8, -1.84, -1.73, -1.96, -2.99, -4.92, -5.36, -4.82, -2.68, -0.0, 2.23, 1.9, 1.6, 0.0, 0.0, 0.0, 0.0, 0.0, 0.0, 0.0, 0.0, -1.0, -3.2, -4.8, -5.09, -5.09, -5.09, -6.87, -6.87, -6.87, -6.87, -6.59, -6.92, -6.92, -6.92, -6.64, -6.64, -6.67, -6.67, -6.69, -6.69, -6.98, -6.34, -6.61, -6.33, -6.31, -6.31, -6.31, -6.31, -6.31, -5.64, -5.64, -5.64, -5.23, -5.23, -4.57, -4.6, -3.94, -3.97, -4.0, -4.03, -4.03, -4.03, -4.03, -4.05, -3.42, -3.22, -2.84, -1.76, -1.27, -1.05, -1.08, -1.86, -2.24, -1.2, -0.63, 0.0, 0.0, 0.0, 0.45, 1.34, 2.24, 3.13, 6.26, 6.58, 6.16, 6.21, 5.6, 5.36, 5.81, 5.81, 5.36, 3.93, 1.27, -1.27, -1.08, -1.83, -2.99, -3.91, -3.0, -1.96, -1.75, -2.67, -4.29, -6.26, -5.81, -3.39, -0.0, 1.61, 1.61, 0.99, 0.95, 0.89, 0.0, -2.98, -3.48, -2.53, -2.0, -1.66, -1.7, -2.41, -3.84, -5.43, -6.0, -6.0, -6.87, -6.87, -6.87, -6.87, -6.59, -6.92, -6.92, -6.92, -6.64, -6.95, -6.95, -6.67, -6.97, -6.69, -6.63, -6.34, -6.61, -6.33, -6.58, -6.31, -6.31, -6.31, -6.31, -6.31, -5.89, -5.67, -5.23, -5.02, -4.57, -4.6, -4.6, -4.4, -3.97, -4.0, -4.24, -4.45, -4.45, -4.45, -4.05, -3.84, -3.45, -2.61, -2.2, -0.55, 0.0, 0.0, -1.9, -0.65, -0.57, -0.6, -0.0, 0.0, 0.0, 0.89, 1.34, 2.24, 2.63, 3.39, 6.45, 6.45, 6.26, 5.81, 5.81, 5.36, 4.82, 4.4, 2.23, -2.0, -3.72, -3.79, -4.43, -4.89, -4.54, -2.99, -2.67, -3.49, -3.63, -4.89, -5.36, -4.4, -2.53, -0.0, 0.54, 0.54, 0.6, 0.89, 0.0, -2.6, -3.16, -1.49, -0.98, -1.83, -2.88, -2.6, -3.22, -5.09, -6.0, -6.0, -6.87, -6.87, -6.87, -6.87, -6.59, -6.92, -6.92, -6.92, -6.64, -6.95, -6.95, -6.67, -6.97, -6.69, -6.35, -6.34, -6.34, -6.33, -6.33, -6.58, -6.31, -6.31, -6.31, -6.31, -5.67, -5.67, -5.67, -5.26, -4.8, -4.57, -5.02, -4.6, -4.4, -4.42, -4.44, -4.69, -4.69, -4.45, -4.71, -4.46, -3.84, -3.45, -2.36, -1.16, 0.0, 0.0, 2.24, 0.57, -0.0, -0.0, -0.0, 0.0, 0.0, 0.45, 1.34, 1.7, 2.17, 3.07, 3.98, 6.2, 5.73, 5.73, 5.36, 4.34, 3.82, 3.35, 2.48, 0.0, -5.51, -6.0, -5.58, -4.89, -4.98, -4.98, -3.72, -3.49, -5.0, -4.92, -4.19, -3.58, -2.6, -2.21, -0.0, -0.0, -0.0, 0.0, 0.0, -0.85, 0.0, 0.0, 0.0, 0.0, -1.52, -3.09, -3.79, -5.06, -5.69, -5.69, -6.87, -6.87, -6.87, -6.87, -6.59, -6.92, -6.92, -6.92, -6.64, -6.95, -6.95, -6.67, -6.67, -6.35, -6.35, -6.63, -6.34, -6.61, -6.33, -6.33, -6.33, -6.33, -6.07, -6.07, -6.33, -5.92, -5.69, -5.04, -5.93, -5.04, -5.26, -5.26, -5.04, -4.63, -4.63, -4.66, -4.69, -4.69, -4.45, -4.71, -4.05, -3.42, -2.77, -1.8, -1.14, 0.0, 0.59, 1.16, 0.6, 0.0, 0.0, -0.45, 0.0, 0.0, 0.0, 1.26, 1.86, 2.6, 3.07, 3.53, 4.98, 4.98, 4.34, 2.98, 2.53, 2.53, 2.48, 0.0, -2.2, -5.09, -4.0, -2.95, -3.72, -5.72, -5.49, -5.21, -5.63, -5.86, -5.06, -2.29, -3.13, -3.6, -2.53, -0.57, -0.42, -0.63, -0.45, 0.0, 0.0, 0.0, 0.0, 0.0, 0.0, 0.0, -3.6, -3.47, -4.11, -4.11, -6.87, -6.87, -6.87, -6.87, -6.59, -6.92, -6.92, -6.92, -6.64, -6.95, -6.95, -6.67, -6.67, -6.97, -6.35, -6.35, -6.34, -6.34, -6.61, -6.33, -6.33, -6.33, -6.33, -6.33, -6.33, -5.92, -5.69, -5.69, -5.69, -6.56, -5.08, -5.08, -5.32, -5.06, -5.06, -4.63, -4.66, -4.69, -4.45, -4.45, -4.05, -3.83, -2.75, -2.29, -1.65, -0.57, 0.0, 0.0, 0.0, 0.0, 0.0, -0.57, -0.6, 0.0, 0.0, 0.57, 1.24, 2.4, 2.4, 2.91, 3.07, 3.6, 3.16, 2.53, 2.53, 2.8, 2.53, 2.48, 0.0, 0.0, 0.0, 0.0, -1.84, -4.68, -6.73, -7.41, -6.64, -6.95, -5.86, -4.6, -3.11, -3.9, -4.15, -4.0, -1.49, -1.27, -1.34, -1.2, -1.13, -0.98, 0.0, 0.0, 0.0, 0.0, 0.76, 0.0, 0.0, 0.0, -6.87, -6.87, -6.87, -6.87, -6.59, -6.92, -6.92, -6.92, -6.64, -6.95, -6.95, -6.67, -6.67, -6.67, -6.35, -6.35, -6.35, -6.34, -6.34, -6.33, -6.33, -6.33, -6.33, -6.33, -6.33, -5.92, -5.69, -6.08, -6.33, -5.26, -4.42, -4.45, -5.09, -5.34, -5.08, -5.06, -4.42, -4.66, -4.69, -4.45, -4.05, -3.83, -3.4, -2.26, -1.76, -1.12, -0.57, -0.53, 0.0, 0.0, 0.0, -0.51, -0.53, 0.0, 0.0, 0.0, 0.54, 1.24, 2.15, 2.4, 4.46, 3.48, 3.16, 3.6, 3.39, 3.39, 2.8, 2.8, 3.16, 2.0, 1.13, 0.0, -3.2, -6.04, -7.36, -6.95, -6.21, -6.0, -5.72, -5.94, -4.6, -4.16, -5.09, -5.36, -5.29, -2.49, -2.17, -1.73, -2.41, -2.53, -1.83, -1.83, -0.81, 0.0, 0.69, 2.18, 2.18, 2.18, -6.87, -6.87, -6.87, -6.87, -6.59, -6.92, -6.92, -6.92, -6.64, -6.95, -6.95, -6.67, -6.67, -6.67, -6.64, -6.35, -6.35, -6.34, -6.34, -6.34, -6.33, -6.33, -6.33, -6.33, -6.33, -5.92, -5.69, -6.08, -6.33, -5.92, -4.6, -3.97, -4.45, -4.45, -5.09, -5.08, -5.08, -4.66, -4.66, -4.69, -4.03, -4.05, -3.4, -2.75, -2.12, -1.63, -1.2, -1.12, -0.58, -0.53, -0.54, -0.55, -0.51, -0.59, 0.0, 0.0, 0.0, 0.54, 1.2, 1.9, 2.5, 4.46, 3.48, 3.6, 4.02, 4.02, 3.2, 1.4, 1.4, 1.6, 0.99, 0.0, -2.82, -4.92, -6.56, -5.2, -3.45, -2.8, -4.74, -6.32, -6.28, -5.38, -4.56, -5.43, -5.81, -3.44, -3.53, -5.09, -4.54, -4.01, -4.29, -4.01, -3.63, -2.4, -0.82, 0.0, 3.09, 3.09, -6.87, -6.87, -6.87, -6.87, -6.87, -6.92, -6.92, -6.92, -6.64, -6.95, -6.95, -6.67, -6.67, -6.97, -6.97, -6.35, -6.35, -6.34, -6.34, -6.34, -6.08, -6.33, -6.33, -6.33, -6.33, -5.69, -5.69, -5.69, -5.69, -5.69, -5.26, -4.6, -3.97, -4.0, -4.45, -4.45, -4.69, -5.08, -4.66, -4.44, -4.03, -4.05, -3.4, -2.75, -2.75, -2.26, -1.73, -1.76, -1.65, -1.14, -1.16, -1.19, -0.55, -0.57, -0.59, 0.0, 0.0, 0.0, 0.65, 1.2, 1.61, 1.84, 2.98, 2.98, 3.13, 3.58, 2.21, 1.6, 1.13, 1.13, 0.0, 0.0, 0.0, -2.59, -4.06, -4.93, -4.17, -3.25, -4.2, -5.94, -7.02, -6.24, -5.13, -4.46, -5.06, -6.28, -6.51, -5.82, -5.77, -5.69, -6.01, -5.69, -5.06, -4.74, -3.22, -1.47, 1.45, 1.45, -6.87, -6.87, -6.87, -6.87, -6.87, -6.92, -6.92, -6.92, -6.64, -6.95, -6.95, -6.67, -6.67, -6.67, -6.97, -6.64, -6.35, -6.35, -6.34, -6.34, -6.34, -6.08, -6.08, -6.33, -6.08, -6.08, -5.69, -5.69, -5.69, -5.95, -5.69, -5.26, -4.6, -4.63, -4.0, -4.03, -4.45, -4.69, -4.69, -4.44, -4.45, -3.81, -3.4, -3.32, -2.77, -2.96, -2.75, -2.44, -1.76, -1.8, -1.7, -1.07, -1.19, -1.08, -0.57, -0.59, 0.0, 0.0, 0.53, 0.53, 1.16, 1.6, 1.7, 3.35, 3.58, 2.53, 1.4, 1.6, 1.6, 2.53, 1.27, 1.08, 0.0, 0.0, -3.42, -5.93, -6.56, -5.93, -5.86, -5.38, -5.59, -6.01, -5.49, -4.71, -3.91, -3.69, -4.56, -4.83, -5.36, -5.76, -5.76, -5.89, -5.69, -5.49, -4.43, -3.63, -3.11, 0.0, -6.87, -6.87, -6.87, -6.87, -6.87, -6.92, -6.92, -6.92, -6.92, -6.95, -6.95, -6.95, -6.67, -6.67, -6.97, -6.64, -6.35, -6.35, -6.34, -6.34, -6.34, -6.34, -6.08, -6.08, -6.08, -6.08, -5.69, -5.95, -5.95, -5.95, -5.95, -5.95, -5.45, -5.04, -4.63, -4.0, -4.03, -4.45, -4.45, -4.69, -4.45, -3.81, -4.05, -3.49, -2.77, -3.42, -3.84, -3.42, -2.77, -2.32, -1.67, -1.7, -1.07, -1.19, -1.08, -0.57, -0.59, 0.0, 0.0, 0.61, 0.61, 1.13, 1.84, 2.21, 2.4, 2.53, 2.53, 2.21, 2.21, 1.6, 1.13, 0.0, 0.0, -0.85, -3.42, -5.06, -6.45, -6.7, -5.86, -5.28, -4.71, -5.3, -4.83, -4.03, -2.9, -2.31, -3.15, -3.32, -4.2, -4.07, -4.2, -4.0, -4.5, -4.16, -3.91, -4.11, -4.01, -3.11, -6.87, -6.87, -6.87, -6.87, -6.87, -6.59, -6.92, -6.92, -6.92, -6.64, -6.95, -6.95, -6.67, -6.67, -6.97, -6.97, -6.35, -6.35, -6.34, -6.34, -6.34, -6.34, -6.34, -6.08, -6.08, -6.08, -6.34, -5.95, -5.95, -5.95, -5.7, -5.7, -5.7, -5.29, -5.06, -4.63, -4.0, -4.03, -4.45, -4.45, -4.45, -4.71, -4.05, -3.6, -3.49, -3.42, -4.47, -4.45, -3.72, -2.8, -2.16, -1.7, -1.7, -1.19, -1.19, -1.08, -0.57, 0.0, 0.0, 0.0, 0.61, 0.59, 0.59, 2.0, 3.13, 2.53, 2.8, 2.8, 2.21, 1.13, 0.0, 0.0, 0.0, -1.4, -1.28, -2.59, -4.25, -6.15, -6.15, -5.28, -5.04, -4.71, -4.03, -3.79, -3.2, -2.99, -3.15, -3.32, -3.21, -3.21, -3.49, -3.32, -2.69, -2.51, -2.8, -3.47, -3.72, -4.01, -6.87, -6.87, -6.87, -6.87, -6.87, -6.59, -6.92, -6.92, -6.92, -6.92, -6.64, -6.95, -6.95, -6.67, -6.67, -6.97, -6.35, -6.35, -6.35, -6.34, -6.34, -6.34, -6.34, -6.34, -6.34, -6.34, -6.34, -5.95, -5.7, -5.7, -5.7, -5.7, -5.7, -5.7, -5.29, -5.06, -4.42, -4.0, -4.03, -4.45, -4.45, -4.71, -4.71, -4.45, -4.0, -4.4, -3.49, -3.73, -3.79, -3.49, -2.82, -2.18, -1.7, -1.7, -1.19, -1.19, -1.08, -0.57, 0.0, 0.0, 0.0, 0.0, 1.41, 2.0, 2.53, 3.13, 1.9, 2.53, 1.6, 0.0, 0.0, 0.0, -1.52, -1.49, 0.0, -1.39, -2.7, -5.46, -6.95, -6.95, -6.95, -5.38, -4.94, -4.56, -4.56, -4.46, -4.0, -4.0, -4.0, -3.32, -3.32, -2.44, -2.54, -2.51, -2.64, -2.47, -3.47, -3.47, -6.87, -6.87, -6.87, -6.87, -6.87, -6.59, -6.59, -6.92, -6.92, -6.92, -6.64, -6.64, -6.95, -6.67, -6.67, -6.97, -6.64, -6.35, -6.35, -6.34, -6.34, -6.34, -6.34, -6.34, -6.34, -6.34, -6.34, -6.08, -5.7, -5.7, -5.7, -5.7, -5.7, -5.46, -5.06, -5.06, -4.63, -4.42, -4.0, -4.03, -4.45, -4.45, -4.71, -4.45, -4.66, -3.35, -1.76, -1.73, -2.86, -2.86, -2.86, -2.4, -2.4, -1.73, -1.73, -1.19, -1.08, -0.57, -0.57, 0.0, 0.0, 0.0, 0.57, 1.84, 1.8, 0.0, 0.0, 0.0, 0.0, 0.0, 0.0, 0.0, -1.63, -0.89, -1.4, -1.33, -0.89, -2.69, -4.42, -5.84, -6.44, -6.01, -5.3, -4.56, -4.03, -4.5, -4.12, -3.63, -3.63, -3.45, -3.15, -2.44, -2.69, -2.67, -3.55, -3.33, -3.33, -3.33, -6.87, -6.87, -6.87, -6.87, -6.87, -6.87, -6.59, -6.59, -6.92, -6.92, -6.92, -6.64, -6.95, -6.67, -6.67, -6.67, -6.64, -6.35, -6.35, -6.08, -6.34, -6.34, -6.34, -6.34, -6.34, -6.34, -6.34, -6.08, -5.7, -5.7, -5.7, -5.7, -5.7, -5.46, -5.32, -5.32, -5.06, -4.66, -4.66, -4.69, -4.45, -4.45, -4.45, -4.45, -4.45, -3.35, -2.21, -1.18, -1.67, -2.44, -2.48, -2.22, -2.44, -2.2, -1.73, -1.73, -1.08, -1.23, -0.57, -0.57, -0.51, 0.0, 0.0, 1.52, 2.2, 0.0, 0.0, 0.0, 0.0, 0.0, 0.0, -1.05, -0.96, -0.95, -0.84, -0.85, 0.0, 0.85, 0.0, 0.0, -1.73, -1.63, -1.55, -1.49, -1.44, -1.52, -1.68, -1.68, -2.47, -2.47, -2.57, -2.57, -2.44, -3.27, -3.4, -3.4, -3.4, -3.4, -6.87, -6.87, -6.87, -6.87, -6.87, -6.87, -6.87, -6.59, -6.59, -6.92, -6.92, -6.64, -6.64, -6.95, -6.67, -6.67, -6.64, -6.35, -6.35, -6.35, -6.08, -6.34, -6.34, -6.34, -6.34, -6.34, -6.08, -6.08, -5.98, -5.98, -5.7, -5.7, -5.46, -5.06, -5.32, -5.32, -5.08, -5.08, -4.66, -4.44, -4.69, -4.45, -4.45, -4.03, -4.05, -3.81, -2.89, -2.21, -1.71, -1.8, -1.73, -1.58, -2.48, -2.22, -1.76, -1.57, -1.57, -1.23, -1.23, -1.11, -0.57, -0.59, 0.0, 0.0, 1.52, 1.55, 0.0, 0.0, -1.08, -1.19, -1.98, -1.05, -1.03, -0.89, 0.0, 0.0, 0.82, 1.64, 1.71, 2.44, 2.51, 1.52, 0.73, 0.0, 0.0, -0.75, -0.75, -1.56, -1.56, -2.39, -2.39, -3.15, -3.63, -3.45, -3.45, -4.5, -4.5, -4.5, -6.87, -6.87, -6.87, -6.87, -6.87, -6.87, -6.87, -6.59, -6.59, -6.59, -6.92, -6.64, -6.64, -6.95, -6.67, -6.67, -6.35, -6.64, -6.35, -6.35, -6.35, -6.08, -6.34, -6.34, -6.34, -6.34, -6.08, -5.98, -5.98, -5.72, -5.72, -5.72, -5.06, -5.32, -5.32, -5.08, -5.08, -5.08, -4.66, -4.44, -4.44, -4.69, -4.69, -4.03, -4.05, -4.05, -3.6, -2.89, -2.37, -1.73, -1.67, -1.73, -1.76, -1.8, -1.8, -1.76, -1.76, -1.76, -1.23, -1.23, -1.11, -0.57, -0.59, 0.0, 0.57, 0.0, 0.0, 0.0, -0.96, -1.84, -1.84, -0.96, -0.89, 0.0, 0.0, 0.0, 0.89, 0.86, 1.64, 2.44, 3.44, 3.14, 1.71, 0.0, 0.0, -1.5, -2.21, -2.21, -2.49, -2.49, -3.7, -3.45, -4.34, -4.56, -4.56, -4.34, -4.34, -4.34, -6.87, -6.87, -6.52, -6.87, -6.87, -6.87, -6.87, -6.87, -6.59, -6.59, -6.92, -6.92, -6.64, -6.95, -6.95, -6.67, -6.35, -6.35, -6.35, -6.35, -6.35, -6.08, -6.08, -5.7, -5.7, -5.7, -5.7, -5.98, -5.72, -5.72, -5.72, -5.72, -5.32, -5.32, -5.32, -5.08, -5.08, -5.08, -4.44, -4.69, -4.44, -4.44, -4.69, -4.45, -3.81, -4.05, -3.4, -3.6, -2.89, -2.92, -2.29, -1.67, -1.73, -1.76, -1.8, -1.8, -1.76, -1.76, -1.76, -1.76, -1.11, -1.11, -1.13, -0.59, 0.0, 0.0, 0.0, 0.0, 0.0, 0.0, -1.03, 0.0, 0.0, 0.0, 0.0, 0.0, 0.0, 0.85, 1.63, 2.6, 2.44, 2.39, 1.61, 0.73, 0.0, -1.5, -3.11, -3.78, -4.25, -4.56, -4.34, -4.34, -4.56, -4.83, -4.83, -5.21, -5.21, -5.21, -6.52, -6.52, -6.52, -6.28, -6.28, -6.62, -6.62, -6.87, -6.59, -6.59, -6.92, -6.92, -6.64, -6.95, -6.95, -6.67, -6.67, -6.35, -6.35, -6.35, -6.35, -6.35, -5.7, -5.7, -5.7, -5.7, -5.98, -5.72, -5.72, -5.72, -5.72, -5.32, -5.32, -5.32, -5.08, -5.08, -5.08, -5.08, -4.69, -4.69, -4.69, -4.69, -4.69, -4.45, -4.03, -4.05, -3.83, -3.4, -3.4, -3.4, -2.96, -2.32, -2.36, -2.2, -2.22, -1.76, -1.76, -1.76, -1.76, -1.76, -1.76, -1.11, -1.11, -0.59, -0.57, 0.0, 0.0, 0.0, 0.0, 0.0, 0.0, 0.0, 0.0, 0.0, 0.0, 0.0, 0.0, 0.85, 1.76, 1.69, 1.7, 1.6, 1.71, 0.73, -0.76, -2.21, -3.78, -4.71, -5.64, -5.38, -5.46, -5.21, -4.56, -4.56, -5.21, -5.21, -5.21, -5.21, -6.52, -6.52, -6.28, -6.28, -6.28, -6.28, -6.62, -6.87, -6.59, -6.59, -6.92, -6.92, -6.64, -6.95, -6.95, -6.67, -6.67, -6.35, -6.35, -6.35, -6.08, -6.35, -5.98, -5.7, -5.7, -5.98, -5.72, -5.72, -5.72, -5.72, -5.08, -5.08, -5.08, -5.08, -5.08, -5.08, -5.08, -5.08, -5.09, -4.69, -4.69, -4.69, -4.69, -4.45, -4.71, -4.05, -4.05, -3.83, -3.4, -3.64, -3.42, -3.0, -2.8, -2.82, -2.44, -2.22, -2.22, -2.22, -1.76, -1.76, -1.76, -1.76, -1.11, -1.11, -1.11, 0.0, 0.0, 0.0, 0.0, 0.0, -0.95, -0.95, 0.0, 0.0, 0.0, 0.0, 0.89, 0.94, 1.75, 1.76, 0.85, 0.86, 1.71, 0.8, -0.76, -2.97, -5.38, -6.14, -5.86, -6.24, -5.21, -4.5, -3.6, -2.67, -2.67, -3.6, -3.6, -3.6, -6.52, -6.52, -6.28, -6.28, -6.28, -6.28, -6.62, -6.62, -6.59, -6.59, -6.92, -6.92, -6.64, -6.64, -6.95, -6.95, -6.67, -6.35, -6.35, -6.35, -6.08, -6.35, -5.98, -5.98, -5.98, -5.72, -5.72, -5.72, -5.08, -5.08, -5.08, -5.08, -5.08, -5.08, -5.08, -4.66, -5.08, -5.08, -5.09, -4.69, -4.69, -4.69, -4.69, -4.45, -4.71, -4.46, -4.05, -3.83, -3.83, -4.08, -3.42, -3.45, -3.45, -2.82, -2.84, -2.84, -2.61, -2.2, -2.2, -2.2, -1.76, -1.76, -1.23, -1.11, -1.23, 0.0, 0.0, 0.0, 0.0, -0.89, -1.84, -1.84, -2.64, 0.0, 0.0, 0.0, 0.94, 0.89, 0.85, 0.85, 0.85, 0.85, 0.0, 0.0, 0.0, -4.46, -5.69, -6.06, -5.77, -5.43, -5.15, -3.63, -1.83, -1.14, -1.03, -1.84, -1.84, -1.84, -6.52, -6.52, -6.28, -6.28, -6.28, -6.28, -6.62, -6.87, -6.59, -6.59, -6.92, -6.92, -6.92, -6.64, -6.95, -6.95, -6.95, -6.67, -6.35, -6.35, -6.35, -6.08, -5.72, -5.72, -5.72, -5.72, -5.32, -5.08, -5.08, -5.08, -5.08, -5.08, -5.08, -4.66, -4.66, -4.66, -4.66, -4.66, -5.09, -4.69, -4.69, -4.69, -4.45, -4.71, -4.71, -4.46, -4.05, -3.83, -4.08, -3.84, -4.1, -3.45, -3.45, -3.47, -3.49, -3.49, -2.84, -2.84, -2.84, -2.4, -2.2, -1.73, -1.57, -1.23, -1.08, -0.51, 0.0, 0.0, 0.0, 0.0, 0.0, -0.89, -2.8, -2.8, -0.95, 0.0, 0.0, 0.94, 0.89, 0.0, 0.0, 0.0, 0.0, 0.0, -2.28, -3.2, -4.19, -5.09, -5.51, -4.6, -3.58, -1.98, -1.27, -1.08, -1.05, -0.96, -0.96, -0.96, -6.52, -6.52, -6.28, -6.28, -6.28, -6.28, -6.62, -6.87, -6.59, -6.92, -6.92, -6.92, -6.92, -6.64, -6.95, -6.95, -6.95, -6.95, -6.35, -6.35, -6.35, -6.35, -5.72, -5.72, -5.72, -5.32, -5.08, -5.08, -5.08, -5.08, -5.08, -4.66, -4.66, -4.66, -4.66, -4.66, -4.66, -4.66, -4.44, -4.69, -4.69, -4.69, -4.45, -4.71, -4.46, -4.46, -4.47, -4.08, -4.08, -3.84, -4.1, -3.45, -3.85, -3.84, -3.83, -3.49, -3.49, -3.49, -2.82, -3.08, -2.84, -2.2, -1.73, -1.73, -1.08, -1.11, -1.03, 0.0, 0.0, 0.89, 0.0, 0.0, -0.96, -1.05, -1.98, -1.03, 0.0, 0.0, 0.0, 0.0, 0.0, 0.0, 0.0, -1.6, -2.21, -2.4, -4.19, -5.29, -5.29, -3.93, -1.98, 0.0, -1.6, -1.27, -1.41, -1.41, -1.41, -1.41, -6.52, -6.52, -6.28, -6.28, -6.28, -6.62, -6.87, -6.87, -6.59, -6.92, -6.92, -6.92, -6.92, -6.64, -6.95, -6.95, -6.95, -6.95, -6.65, -6.35, -6.35, -6.35, -5.72, -5.46, -5.08, -5.08, -5.08, -5.08, -5.08, -5.34, -4.69, -4.44, -4.44, -4.66, -4.66, -4.66, -4.66, -4.66, -4.66, -4.69, -4.69, -4.69, -4.45, -4.71, -4.46, -4.73, -4.47, -4.08, -4.08, -3.84, -4.1, -3.85, -4.12, -3.84, -4.12, -3.83, -3.83, -3.49, -3.47, -3.22, -2.82, -2.84, -2.4, -1.73, -1.57, -1.23, -0.57, 0.0, 0.0, 0.0, 0.0, 0.0, 0.89, 0.96, 0.0, -1.05, 0.0, 0.0, 0.0, 0.0, 0.0, 0.0, 0.0, -0.8, -2.31, -3.06, -4.56, -5.82, -5.82, -3.79, -1.13, 0.0, 0.0, -2.68, -2.68, -2.68, -2.68, -2.68, -6.87, -6.87, -6.52, -6.28, -6.28, -6.62, -6.87, -6.87, -6.59, -6.92, -6.92, -6.92, -6.92, -6.92, -6.95, -6.95, -6.95, -6.95, -6.34, -6.34, -6.06, -5.72, -5.72, -5.72, -5.34, -5.08, -5.08, -5.08, -5.34, -5.09, -4.69, -4.44, -4.44, -4.66, -4.66, -4.66, -4.66, -4.66, -4.66, -4.69, -4.69, -4.45, -4.71, -4.71, -4.46, -4.73, -4.47, -4.08, -4.08, -4.1, -4.1, -3.85, -4.12, -3.84, -4.12, -3.83, -3.83, -4.12, -3.84, -3.47, -3.22, -2.82, -2.61, -2.18, -1.73, -1.57, -1.11, -0.57, 0.0, 0.0, 0.0, 0.0, 0.95, 1.84, 1.03, 0.0, 0.0, 0.0, 0.0, 0.0, 0.0, 0.0, 0.0, 0.0, -0.89, -3.63, -4.5, -5.24, -4.81, -3.16, -1.58, 0.0, -2.68, -2.21, -2.53, -2.98, -2.98, -2.98, -6.87, -6.87, -6.87, -6.87, -6.87, -6.87, -6.87, -6.87, -6.59, -6.92, -6.92, -6.92, -6.92, -6.92, -6.92, -6.64, -6.64, -6.64, -6.34, -6.34, -6.34, -6.01, -5.72, -5.72, -5.34, -5.34, -5.34, -5.34, -5.34, -5.34, -5.09, -5.09, -5.08, -4.66, -4.66, -4.66, -4.66, -4.66, -4.44, -4.69, -4.69, -4.45, -4.71, -4.46, -4.46, -4.73, -4.47, -4.47, -4.08, -4.1, -4.1, -4.1, -4.12, -3.84, -4.12, -4.12, -4.12, -4.12, -4.12, -3.84, -3.47, -3.22, -2.82, -2.82, -2.18, -1.73, -1.76, -1.11, -0.57, -0.95, 0.0, 0.0, 0.0, 0.0, 0.0, 0.0, 0.0, 0.0, 0.0, 0.0, 0.0, 0.82, 0.86, 1.71, 0.0, -1.03, -2.98, -3.35, -3.39, -3.13, -2.8, -2.8, -2.97, -3.35, -3.48, -4.4, -4.4, -4.4, -6.87, -6.87, -6.87, -6.87, -6.87, -6.87, -6.87, -6.87, -6.87, -6.92, -6.92, -6.92, -6.92, -6.92, -6.92, -6.92, -6.64, -6.34, -6.34, -6.34, -6.34, -5.72, -5.72, -5.72, -5.34, -5.34, -5.34, -5.34, -5.34, -5.34, -5.34, -5.34, -5.08, -5.08, -5.08, -5.08, -5.08, -4.83, -4.69, -4.69, -4.45, -4.71, -4.46, -4.46, -4.46, -4.47, -4.47, -4.47, -4.47, -4.47, -4.1, -3.85, -4.12, -4.12, -4.43, -4.43, -4.43, -4.43, -4.43, -4.12, -3.84, -3.84, -3.22, -2.82, -2.82, -2.4, -1.76, -1.58, -1.76, -1.98, -0.89, -0.95, 0.0, 0.0, 0.0, -0.95, -1.84, -0.89, 0.0, 0.0, 0.89, 0.89, 0.82, 0.83, 0.83, 0.0, -1.4, -1.98, -2.98, -3.6, -4.0, -4.38, -4.38, -4.77, -4.4, -4.82, -4.82, -4.82, -6.87, -6.87, -6.87, -6.87, -6.87, -6.87, -6.87, -6.87, -6.87, -6.59, -6.92, -6.92, -6.92, -6.92, -6.92, -6.92, -6.92, -6.64, -6.34, -6.04, -6.04, -5.72, -5.72, -5.45, -5.72, -5.34, -5.34, -5.34, -5.34, -5.34, -5.34, -5.34, -5.34, -5.34, -5.08, -5.08, -5.34, -5.09, -4.69, -4.45, -4.71, -4.71, -4.46, -4.46, -4.73, -4.47, -4.47, -4.47, -4.47, -4.47, -4.47, -4.1, -4.45, -4.45, -4.74, -4.43, -4.43, -4.43, -4.74, -4.74, -4.43, -4.12, -4.12, -3.49, -3.08, -2.84, -2.2, -2.22, -2.44, -3.0, -0.89, -0.89, 0.0, 0.0, 0.0, 0.0, -1.01, -1.73, -0.94, 0.0, 0.0, 0.0, 0.0, 0.0, 0.0, -0.89, -3.58, -3.79, -4.6, -5.09, -5.75, -5.81, -4.92, -4.47, -4.02, -3.82, -3.82, -3.82, -6.87, -6.87, -6.87, -6.87, -6.87, -6.87, -6.87, -6.87, -6.87, -6.87, -6.59, -6.59, -6.92, -6.92, -6.92, -6.92, -6.92, -6.64, -6.32, -6.32, -6.04, -5.72, -5.72, -5.72, -5.72, -5.72, -5.72, -5.72, -5.72, -5.72, -5.72, -5.72, -5.34, -5.34, -5.34, -5.34, -5.09, -5.09, -4.69, -4.45, -4.71, -4.46, -4.46, -4.46, -4.08, -4.08, -4.47, -4.47, -4.47, -4.47, -4.47, -4.47, -4.47, -4.75, -4.45, -4.74, -5.01, -5.01, -5.01, -4.74, -4.43, -4.43, -4.12, -3.83, -3.49, -3.22, -2.84, -2.86, -2.86, -2.18, -1.05, 0.0, 0.0, 0.0, 0.0, 0.0, 0.0, 0.0, -0.89, 0.0, 0.0, 0.0, 0.0, 0.0, 0.0, -0.83, -2.83, -4.92, -5.75, -6.65, -6.71, -5.75, -3.58, -1.19, 0.0, 1.03, 1.03, 1.03, -6.87, -6.87, -6.87, -6.87, -6.87, -6.87, -6.87, -6.87, -6.87, -6.87, -6.87, -6.87, -6.59, -6.59, -6.59, -6.59, -6.32, -6.32, -6.32, -6.32, -6.32, -5.72, -5.72, -5.72, -5.72, -5.72, -5.72, -5.72, -5.72, -5.72, -5.72, -5.72, -5.72, -5.72, -5.34, -5.09, -5.09, -5.09, -4.45, -4.71, -4.71, -4.46, -4.46, -4.73, -4.47, -4.08, -4.47, -4.47, -4.47, -4.47, -4.47, -4.47, -4.47, -4.75, -5.06, -5.35, -5.01, -5.01, -5.01, -5.01, -4.43, -4.71, -4.12, -3.83, -3.49, -3.22, -3.49, -2.86, -2.86, -2.84, -1.67, -0.94, 0.0, 0.0, 0.0, 0.0, 0.0, 0.0, -0.89, -0.94, 0.0, -0.89, -0.85, -0.83, 0.0, 0.0, -1.6, -3.32, -5.15, -5.75, -5.21, -2.8, 0.0, 2.31, 2.9, 3.06, 3.06, 3.06, -6.87, -6.87, -6.87, -6.87, -6.87, -6.87, -6.87, -6.87, -6.87, -6.87, -6.87, -6.87, -6.87, -6.87, -6.59, -6.59, -6.32, -6.32, -6.32, -6.32, -6.32, -6.04, -6.04, -5.72, -6.01, -5.72, -5.72, -5.72, -5.72, -5.72, -5.72, -5.72, -5.72, -5.45, -5.09, -5.09, -5.09, -5.1, -4.71, -4.71, -4.46, -4.46, -4.73, -4.73, -4.47, -4.47, -4.47, -4.47, -4.75, -4.47, -4.75, -4.75, -4.78, -5.06, -5.06, -5.06, -5.35, -5.01, -5.01, -5.01, -4.71, -4.71, -4.37, -4.11, -3.83, -3.49, -3.49, -3.2, -3.2, -2.84, -2.82, -1.67, 0.0, 0.0, 0.0, 0.0, 0.0, -0.89, -0.89, -0.94, -0.89, -0.89, -0.85, -0.86, 0.0, 0.0, 0.0, -1.65, -2.51, -2.59, -0.85, 0.89, 2.21, 3.69, 3.78, 3.36, 3.36, 3.36, -6.87, -6.87, -6.87, -6.87, -6.87, -6.87, -6.87, -6.87, -6.87, -6.87, -6.87, -6.87, -6.87, -6.87, -6.59, -6.59, -6.32, -6.32, -6.32, -6.32, -6.32, -6.04, -6.04, -5.72, -6.01, -5.72, -5.72, -5.72, -5.72, -5.72, -5.72, -5.72, -5.72, -5.45, -5.09, -5.09, -5.09, -5.1, -4.71, -4.71, -4.46, -4.46, -4.73, -4.73, -4.47, -4.47, -4.47, -4.47, -4.75, -4.47, -4.75, -4.75, -4.78, -5.06, -5.06, -5.06, -5.35, -5.01, -5.01, -5.01, -4.71, -4.71, -4.37, -4.11, -3.83, -3.49, -3.49, -3.2, -3.2, -2.84, -2.82, -1.67, 0.0, 0.0, 0.0, 0.0, -0.94, -0.89, -0.89, -0.94, -0.89, -0.89, -0.85, -0.86, -0.86, 0.0, 0.0, 0.0, 0.0, 0.0, 0.8, 1.7, 3.29, 3.39, 3.39, 3.51, 3.51, 3.51]}]